Time,TemperatureF,DewpointF,PressureIn,WindDirection,WindDirectionDegrees,WindSpeedMPH,WindSpeedGustMPH,Humidity,HourlyPrecipIn,Conditions,Clouds,dailyrainin,SolarRadiationWatts/m^2,SoftwareType,DateUTC
2013-05-18 00:01:00,73.4,71.6,29.97,SSW,207,0.9,2.0,94,0.00,,,0.00,0.0,meteobridge,2013-05-18 05:01:00,
2013-05-18 00:02:00,73.6,71.8,29.97,SSW,207,0.0,2.0,94,0.00,,,0.00,0.0,meteobridge,2013-05-18 05:02:00,
2013-05-18 00:03:00,73.4,71.6,29.97,SSW,207,0.0,2.0,94,0.00,,,0.00,0.0,meteobridge,2013-05-18 05:03:00,
2013-05-18 00:05:00,73.4,71.6,29.97,SSE,150,2.0,4.0,94,0.00,,,0.00,0.0,meteobridge,2013-05-18 05:05:00,
2013-05-18 00:07:00,73.6,71.8,29.97,SSE,153,0.0,4.0,94,0.00,,,0.00,0.0,meteobridge,2013-05-18 05:07:00,
2013-05-18 00:08:00,73.6,71.8,29.97,SSE,153,0.0,0.9,94,0.00,,,0.00,0.0,meteobridge,2013-05-18 05:08:00,
2013-05-18 00:10:00,73.6,71.8,29.97,SSE,153,0.9,2.0,94,0.00,,,0.00,0.0,meteobridge,2013-05-18 05:10:00,
2013-05-18 00:12:00,73.6,71.8,29.97,SSE,153,2.0,2.0,94,0.00,,,0.00,0.0,meteobridge,2013-05-18 05:12:00,
2013-05-18 00:13:00,73.6,71.8,29.97,SSE,149,4.9,6.0,94,0.00,,,0.00,0.0,meteobridge,2013-05-18 05:13:00,
2013-05-18 00:15:00,73.6,71.8,29.97,ESE,116,0.0,10.1,94,0.00,,,0.00,0.0,meteobridge,2013-05-18 05:15:00,
2013-05-18 00:16:00,73.6,71.8,29.96,SSW,206,0.0,8.1,94,0.00,,,0.00,0.0,meteobridge,2013-05-18 05:16:00,
2013-05-18 00:19:00,73.6,71.8,29.97,SE,138,0.0,2.0,94,0.00,,,0.00,0.0,meteobridge,2013-05-18 05:19:00,
2013-05-18 00:20:00,73.6,71.8,29.96,SE,138,0.0,0.0,94,0.00,,,0.00,0.0,meteobridge,2013-05-18 05:20:00,
2013-05-18 00:21:00,73.6,71.8,29.96,SE,138,0.0,0.9,94,0.00,,,0.00,0.0,meteobridge,2013-05-18 05:21:00,
2013-05-18 00:24:00,73.6,71.8,29.96,SE,134,2.0,4.0,94,0.00,,,0.00,0.0,meteobridge,2013-05-18 05:24:00,
2013-05-18 00:26:00,73.6,71.8,29.96,South,169,0.9,2.9,94,0.00,,,0.00,0.0,meteobridge,2013-05-18 05:26:00,
2013-05-18 00:28:00,73.6,71.8,29.96,SSE,161,2.9,4.0,94,0.00,,,0.00,0.0,meteobridge,2013-05-18 05:28:00,
2013-05-18 00:29:00,73.6,71.8,29.96,SE,145,2.9,6.9,94,0.00,,,0.00,0.0,meteobridge,2013-05-18 05:29:00,
2013-05-18 00:31:00,73.6,71.8,29.96,SSE,151,2.0,4.9,94,0.00,,,0.00,0.0,meteobridge,2013-05-18 05:31:00,
2013-05-18 00:35:00,73.6,71.8,29.96,ESE,115,0.0,2.0,94,0.00,,,0.00,0.0,meteobridge,2013-05-18 05:35:00,
2013-05-18 00:36:00,73.6,71.8,29.96,SE,136,0.0,2.9,94,0.00,,,0.00,0.0,meteobridge,2013-05-18 05:36:00,
2013-05-18 00:40:00,73.6,71.8,29.96,SE,142,0.0,4.0,94,0.00,,,0.00,0.0,meteobridge,2013-05-18 05:40:00,
2013-05-18 00:41:00,73.6,71.8,29.96,SE,142,0.9,0.9,94,0.00,,,0.00,0.0,meteobridge,2013-05-18 05:41:00,
2013-05-18 00:42:00,73.6,71.8,29.96,SE,142,0.9,0.9,94,0.00,,,0.00,0.0,meteobridge,2013-05-18 05:42:00,
2013-05-18 00:46:00,73.6,71.4,29.96,ESE,111,0.9,0.9,93,0.00,,,0.00,0.0,meteobridge,2013-05-18 05:46:00,
2013-05-18 00:47:00,73.6,71.4,29.96,ESE,113,0.9,2.0,93,0.00,,,0.00,0.0,meteobridge,2013-05-18 05:47:00,
2013-05-18 00:48:00,73.6,71.4,29.96,SE,142,2.9,4.9,93,0.00,,,0.00,0.0,meteobridge,2013-05-18 05:48:00,
2013-05-18 00:51:00,73.6,71.4,29.96,SSE,148,0.9,2.9,93,0.00,,,0.00,0.0,meteobridge,2013-05-18 05:51:00,
2013-05-18 00:52:00,73.6,71.4,29.96,SSE,147,2.0,2.9,93,0.00,,,0.00,0.0,meteobridge,2013-05-18 05:52:00,
2013-05-18 00:53:00,73.6,71.4,29.96,ESE,109,4.9,6.9,93,0.00,,,0.00,0.0,meteobridge,2013-05-18 05:53:00,
2013-05-18 00:55:00,73.6,71.4,29.96,SE,133,0.9,2.9,93,0.00,,,0.00,0.0,meteobridge,2013-05-18 05:55:00,
2013-05-18 00:57:00,73.6,71.4,29.96,SE,129,0.9,2.9,93,0.00,,,0.00,0.0,meteobridge,2013-05-18 05:57:00,
2013-05-18 00:58:00,73.6,71.4,29.96,SE,129,0.0,2.0,93,0.00,,,0.00,0.0,meteobridge,2013-05-18 05:58:00,
2013-05-18 01:01:00,73.4,71.2,29.96,SE,129,0.0,2.0,93,0.00,,,0.00,0.0,meteobridge,2013-05-18 06:01:00,
2013-05-18 01:02:00,73.4,71.2,29.96,SSE,148,2.0,2.0,93,0.00,,,0.00,0.0,meteobridge,2013-05-18 06:02:00,
2013-05-18 01:04:00,73.4,71.2,29.96,SSE,149,0.0,2.9,93,0.00,,,0.00,0.0,meteobridge,2013-05-18 06:04:00,
2013-05-18 01:07:00,73.4,71.2,29.96,SSE,149,0.0,2.0,93,0.00,,,0.00,0.0,meteobridge,2013-05-18 06:07:00,
2013-05-18 01:08:00,73.4,71.2,29.96,SSE,149,0.9,2.0,93,0.00,,,0.00,0.0,meteobridge,2013-05-18 06:08:00,
2013-05-18 01:09:00,73.4,71.2,29.96,SE,138,2.0,6.0,93,0.00,,,0.00,0.0,meteobridge,2013-05-18 06:09:00,
2013-05-18 01:10:00,73.4,71.2,29.96,SE,140,2.9,4.0,93,0.00,,,0.00,0.0,meteobridge,2013-05-18 06:10:00,
2013-05-18 01:12:00,73.4,71.2,29.96,SSE,147,2.0,6.9,93,0.00,,,0.00,0.0,meteobridge,2013-05-18 06:12:00,
2013-05-18 01:13:00,73.4,71.2,29.96,SSW,207,0.0,4.9,93,0.00,,,0.00,0.0,meteobridge,2013-05-18 06:13:00,
2013-05-18 01:14:00,73.4,71.2,29.96,SE,138,6.0,6.0,93,0.00,,,0.00,0.0,meteobridge,2013-05-18 06:14:00,
2013-05-18 01:16:00,73.6,71.4,29.96,SSE,152,0.9,6.9,93,0.00,,,0.00,0.0,meteobridge,2013-05-18 06:16:00,
2013-05-18 01:17:00,73.6,71.4,29.96,South,178,0.9,4.9,93,0.00,,,0.00,0.0,meteobridge,2013-05-18 06:17:00,
2013-05-18 01:18:00,73.6,71.4,29.96,South,171,2.9,4.9,93,0.00,,,0.00,0.0,meteobridge,2013-05-18 06:18:00,
2013-05-18 01:20:00,73.6,71.4,29.96,SE,144,0.0,4.9,93,0.00,,,0.00,0.0,meteobridge,2013-05-18 06:20:00,
2013-05-18 01:22:00,73.6,71.4,29.96,SSE,153,2.9,2.9,93,0.00,,,0.00,0.0,meteobridge,2013-05-18 06:22:00,
2013-05-18 01:23:00,73.6,71.4,29.96,ESE,118,2.0,6.9,93,0.00,,,0.00,0.0,meteobridge,2013-05-18 06:23:00,
2013-05-18 01:24:00,73.6,71.4,29.96,ESE,122,2.9,6.9,93,0.00,,,0.00,0.0,meteobridge,2013-05-18 06:24:00,
2013-05-18 01:25:00,73.6,71.4,29.96,SSE,154,4.0,4.0,93,0.00,,,0.00,0.0,meteobridge,2013-05-18 06:25:00,
2013-05-18 01:27:00,73.6,71.4,29.96,South,180,2.9,4.0,93,0.00,,,0.00,0.0,meteobridge,2013-05-18 06:27:00,
2013-05-18 01:29:00,73.6,71.4,29.95,SE,136,0.0,6.0,93,0.00,,,0.00,0.0,meteobridge,2013-05-18 06:29:00,
2013-05-18 01:30:00,73.6,71.4,29.95,SE,140,4.9,6.0,93,0.00,,,0.00,0.0,meteobridge,2013-05-18 06:30:00,
2013-05-18 01:32:00,73.6,71.4,29.95,SSE,148,0.0,4.0,93,0.00,,,0.00,0.0,meteobridge,2013-05-18 06:32:00,
2013-05-18 01:33:00,73.6,71.4,29.95,SSE,148,0.0,0.9,93,0.00,,,0.00,0.0,meteobridge,2013-05-18 06:33:00,
2013-05-18 01:35:00,73.6,71.4,29.95,SSE,150,2.9,4.9,93,0.00,,,0.00,0.0,meteobridge,2013-05-18 06:35:00,
2013-05-18 01:37:00,73.8,71.6,29.95,SSE,156,2.0,4.0,93,0.00,,,0.00,0.0,meteobridge,2013-05-18 06:37:00,
2013-05-18 01:38:00,73.8,71.6,29.95,SSE,165,0.9,4.0,93,0.00,,,0.00,0.0,meteobridge,2013-05-18 06:38:00,
2013-05-18 01:40:00,73.8,71.6,29.95,SE,131,2.0,4.9,93,0.00,,,0.00,0.0,meteobridge,2013-05-18 06:40:00,
2013-05-18 01:42:00,73.8,71.6,29.95,SE,133,2.9,4.0,93,0.00,,,0.00,0.0,meteobridge,2013-05-18 06:42:00,
2013-05-18 01:43:00,73.6,71.4,29.94,SE,143,4.0,4.0,93,0.00,,,0.00,0.0,meteobridge,2013-05-18 06:43:00,
2013-05-18 01:45:00,73.8,71.6,29.94,SE,146,0.0,4.0,93,0.00,,,0.00,0.0,meteobridge,2013-05-18 06:45:00,
2013-05-18 01:47:00,73.8,71.6,29.95,ESE,113,6.9,8.1,93,0.00,,,0.00,0.0,meteobridge,2013-05-18 06:47:00,
2013-05-18 01:48:00,73.8,71.6,29.95,SSE,159,6.9,8.9,93,0.00,,,0.00,0.0,meteobridge,2013-05-18 06:48:00,
2013-05-18 01:50:00,73.8,71.6,29.94,SSE,151,0.0,8.9,93,0.00,,,0.00,0.0,meteobridge,2013-05-18 06:50:00,
2013-05-18 01:51:00,73.8,71.6,29.94,SSE,151,0.9,2.9,93,0.00,,,0.00,0.0,meteobridge,2013-05-18 06:51:00,
2013-05-18 01:53:00,73.8,71.6,29.94,SSE,159,0.9,4.0,93,0.00,,,0.00,0.0,meteobridge,2013-05-18 06:53:00,
2013-05-18 01:54:00,73.8,71.6,29.94,SE,140,0.9,2.9,93,0.00,,,0.00,0.0,meteobridge,2013-05-18 06:54:00,
2013-05-18 01:56:00,73.8,71.6,29.94,ESE,123,4.0,4.0,93,0.00,,,0.00,0.0,meteobridge,2013-05-18 06:56:00,
2013-05-18 01:57:00,73.8,71.2,29.94,SSE,163,0.9,6.0,92,0.00,,,0.00,0.0,meteobridge,2013-05-18 06:57:00,
2013-05-18 01:58:00,73.8,71.2,29.94,SE,141,2.0,4.0,92,0.00,,,0.00,0.0,meteobridge,2013-05-18 06:58:00,
2013-05-18 01:59:00,73.8,71.2,29.94,SE,141,2.9,4.0,92,0.00,,,0.00,0.0,meteobridge,2013-05-18 06:59:00,
2013-05-18 02:01:00,73.8,71.2,29.94,SSW,200,2.0,4.0,92,0.00,,,0.00,0.0,meteobridge,2013-05-18 07:01:00,
2013-05-18 02:02:00,73.8,71.2,29.94,SSW,196,0.0,2.9,92,0.00,,,0.00,0.0,meteobridge,2013-05-18 07:02:00,
2013-05-18 02:04:00,73.8,71.2,29.94,SSW,196,0.0,0.9,92,0.00,,,0.00,0.0,meteobridge,2013-05-18 07:04:00,
2013-05-18 02:05:00,73.8,71.2,29.94,ESE,123,2.0,6.0,92,0.00,,,0.00,0.0,meteobridge,2013-05-18 07:05:00,
2013-05-18 02:06:00,73.8,71.2,29.94,SE,134,0.0,6.0,92,0.00,,,0.00,0.0,meteobridge,2013-05-18 07:06:00,
2013-05-18 02:07:00,73.8,71.2,29.94,SE,134,0.0,2.0,92,0.00,,,0.00,0.0,meteobridge,2013-05-18 07:07:00,
2013-05-18 02:09:00,73.8,71.2,29.94,SE,142,0.0,2.0,92,0.00,,,0.00,0.0,meteobridge,2013-05-18 07:09:00,
2013-05-18 02:10:00,73.8,71.2,29.94,SE,142,0.0,2.0,92,0.00,,,0.00,0.0,meteobridge,2013-05-18 07:10:00,
2013-05-18 02:11:00,73.8,71.2,29.94,SE,142,0.9,0.9,92,0.00,,,0.00,0.0,meteobridge,2013-05-18 07:11:00,
2013-05-18 02:13:00,73.8,71.2,29.94,SSE,161,2.0,6.9,92,0.00,,,0.00,0.0,meteobridge,2013-05-18 07:13:00,
2013-05-18 02:14:00,73.8,71.2,29.94,SSE,161,2.0,2.9,92,0.00,,,0.00,0.0,meteobridge,2013-05-18 07:14:00,
2013-05-18 02:16:00,73.8,71.2,29.94,SE,146,0.9,6.0,92,0.00,,,0.00,0.0,meteobridge,2013-05-18 07:16:00,
2013-05-18 02:17:00,73.8,71.2,29.94,SE,146,0.0,6.0,92,0.00,,,0.00,0.0,meteobridge,2013-05-18 07:17:00,
2013-05-18 02:19:00,73.9,71.4,29.94,SE,146,0.0,2.9,92,0.00,,,0.00,0.0,meteobridge,2013-05-18 07:19:00,
2013-05-18 02:20:00,73.9,71.4,29.93,South,174,4.9,6.9,92,0.00,,,0.00,0.0,meteobridge,2013-05-18 07:20:00,
2013-05-18 02:21:00,73.9,71.4,29.93,SE,141,2.9,8.1,92,0.00,,,0.00,0.0,meteobridge,2013-05-18 07:21:00,
2013-05-18 02:22:00,73.9,71.4,29.93,SE,141,0.9,8.1,92,0.00,,,0.00,0.0,meteobridge,2013-05-18 07:22:00,
2013-05-18 02:25:00,73.9,71.4,29.93,SE,140,0.9,2.9,92,0.00,,,0.00,0.0,meteobridge,2013-05-18 07:25:00,
2013-05-18 02:27:00,73.9,71.4,29.93,SE,143,0.0,4.0,92,0.00,,,0.00,0.0,meteobridge,2013-05-18 07:27:00,
2013-05-18 02:30:00,73.9,71.4,29.93,SE,143,0.0,2.0,92,0.00,,,0.00,0.0,meteobridge,2013-05-18 07:30:00,
2013-05-18 02:31:00,73.9,71.4,29.93,SSE,148,2.9,2.9,92,0.00,,,0.00,0.0,meteobridge,2013-05-18 07:31:00,
2013-05-18 02:32:00,73.9,71.4,29.93,SE,142,0.9,6.0,92,0.00,,,0.00,0.0,meteobridge,2013-05-18 07:32:00,
2013-05-18 02:33:00,73.9,71.4,29.93,SSE,147,2.0,6.0,92,0.00,,,0.00,0.0,meteobridge,2013-05-18 07:33:00,
2013-05-18 02:35:00,73.9,71.4,29.93,SE,143,2.0,6.0,92,0.00,,,0.00,0.0,meteobridge,2013-05-18 07:35:00,
2013-05-18 02:36:00,73.9,71.4,29.93,SE,143,0.9,4.9,92,0.00,,,0.00,0.0,meteobridge,2013-05-18 07:36:00,
2013-05-18 02:39:00,73.9,71.4,29.93,SE,143,2.0,2.0,92,0.00,,,0.00,0.0,meteobridge,2013-05-18 07:39:00,
2013-05-18 02:41:00,73.9,71.4,29.93,SE,133,0.9,4.9,92,0.00,,,0.00,0.0,meteobridge,2013-05-18 07:41:00,
2013-05-18 02:44:00,73.9,71.4,29.93,SE,137,0.9,4.0,92,0.00,,,0.00,0.0,meteobridge,2013-05-18 07:44:00,
2013-05-18 02:46:00,74.1,71.6,29.93,SE,138,0.0,2.0,92,0.00,,,0.00,0.0,meteobridge,2013-05-18 07:46:00,
2013-05-18 02:47:00,73.9,71.4,29.93,SE,138,0.0,0.9,92,0.00,,,0.00,0.0,meteobridge,2013-05-18 07:47:00,
2013-05-18 02:48:00,74.1,71.6,29.93,SE,134,0.0,2.0,92,0.00,,,0.00,0.0,meteobridge,2013-05-18 07:48:00,
2013-05-18 02:50:00,73.9,71.4,29.93,SSE,150,4.0,6.0,92,0.00,,,0.00,0.0,meteobridge,2013-05-18 07:50:00,
2013-05-18 02:52:00,73.9,71.4,29.93,SSE,150,0.0,6.0,92,0.00,,,0.00,0.0,meteobridge,2013-05-18 07:52:00,
2013-05-18 02:54:00,73.9,71.4,29.94,SE,134,0.9,6.0,92,0.00,,,0.00,0.0,meteobridge,2013-05-18 07:54:00,
2013-05-18 02:57:00,74.1,71.6,29.94,South,190,0.9,4.0,92,0.00,,,0.00,0.0,meteobridge,2013-05-18 07:57:00,
2013-05-18 02:58:00,74.1,71.6,29.94,SSE,150,4.0,4.9,92,0.00,,,0.00,0.0,meteobridge,2013-05-18 07:58:00,
2013-05-18 02:59:00,74.1,71.2,29.94,South,189,2.9,6.0,91,0.00,,,0.00,0.0,meteobridge,2013-05-18 07:59:00,
2013-05-18 03:00:00,74.1,71.6,29.94,South,189,0.0,4.9,92,0.00,,,0.00,0.0,meteobridge,2013-05-18 08:00:00,
2013-05-18 03:02:00,74.1,71.2,29.94,SSE,163,0.9,4.0,91,0.00,,,0.00,0.0,meteobridge,2013-05-18 08:02:00,
2013-05-18 03:03:00,74.1,71.2,29.94,SSE,163,0.0,4.0,91,0.00,,,0.00,0.0,meteobridge,2013-05-18 08:03:00,
2013-05-18 03:05:00,74.1,71.6,29.94,SSE,164,0.9,2.0,92,0.00,,,0.00,0.0,meteobridge,2013-05-18 08:05:00,
2013-05-18 03:08:00,74.1,71.2,29.94,SSW,196,2.0,6.0,91,0.00,,,0.00,0.0,meteobridge,2013-05-18 08:08:00,
2013-05-18 03:09:00,74.1,71.2,29.94,SSE,166,0.9,6.0,91,0.00,,,0.00,0.0,meteobridge,2013-05-18 08:09:00,
2013-05-18 03:10:00,74.1,71.2,29.94,South,190,0.9,2.9,91,0.00,,,0.00,0.0,meteobridge,2013-05-18 08:10:00,
2013-05-18 03:11:00,74.1,71.2,29.94,South,190,0.0,2.9,91,0.00,,,0.00,0.0,meteobridge,2013-05-18 08:11:00,
2013-05-18 03:13:00,74.3,71.4,29.94,SSE,151,2.9,4.9,91,0.00,,,0.00,0.0,meteobridge,2013-05-18 08:13:00,
2013-05-18 03:14:00,74.3,71.4,29.94,SSE,151,0.9,4.9,91,0.00,,,0.00,0.0,meteobridge,2013-05-18 08:14:00,
2013-05-18 03:18:00,74.3,71.4,29.94,SSE,157,0.9,2.0,91,0.00,,,0.00,0.0,meteobridge,2013-05-18 08:18:00,
2013-05-18 03:19:00,74.3,71.4,29.94,SSE,156,0.9,2.0,91,0.00,,,0.00,0.0,meteobridge,2013-05-18 08:19:00,
2013-05-18 03:22:00,74.3,71.4,29.94,SE,128,4.9,4.9,91,0.00,,,0.00,0.0,meteobridge,2013-05-18 08:22:00,
2013-05-18 03:24:00,74.3,71.4,29.94,SSE,161,0.9,6.0,91,0.00,,,0.00,0.0,meteobridge,2013-05-18 08:24:00,
2013-05-18 03:25:00,74.3,71.4,29.94,South,182,0.9,4.0,91,0.00,,,0.00,0.0,meteobridge,2013-05-18 08:25:00,
2013-05-18 03:27:00,74.3,71.4,29.94,South,171,4.0,6.0,91,0.00,,,0.00,0.0,meteobridge,2013-05-18 08:27:00,
2013-05-18 03:29:00,74.3,71.4,29.94,SSW,201,4.0,8.1,91,0.00,,,0.00,0.0,meteobridge,2013-05-18 08:29:00,
2013-05-18 03:30:00,74.3,71.4,29.94,SSW,204,2.0,6.9,91,0.00,,,0.00,0.0,meteobridge,2013-05-18 08:30:00,
2013-05-18 03:33:00,74.3,71.4,29.95,SSE,158,0.0,4.0,91,0.00,,,0.00,0.0,meteobridge,2013-05-18 08:33:00,
2013-05-18 03:35:00,74.3,71.4,29.95,SSE,150,2.0,2.9,91,0.00,,,0.00,0.0,meteobridge,2013-05-18 08:35:00,
2013-05-18 03:36:00,74.3,71.4,29.95,SSE,149,2.0,2.9,91,0.00,,,0.00,0.0,meteobridge,2013-05-18 08:36:00,
2013-05-18 03:39:00,74.3,71.4,29.95,South,190,0.9,4.0,91,0.00,,,0.00,0.0,meteobridge,2013-05-18 08:39:00,
2013-05-18 03:40:00,74.3,71.4,29.95,SE,143,4.0,4.9,91,0.00,,,0.00,0.0,meteobridge,2013-05-18 08:40:00,
2013-05-18 03:41:00,74.3,71.4,29.95,SE,143,0.0,4.9,91,0.00,,,0.00,0.0,meteobridge,2013-05-18 08:41:00,
2013-05-18 03:42:00,74.3,71.4,29.95,SSW,210,2.9,4.0,91,0.00,,,0.00,0.0,meteobridge,2013-05-18 08:42:00,
2013-05-18 03:44:00,74.3,71.4,29.95,ENE,60,0.9,2.9,91,0.00,,,0.00,0.0,meteobridge,2013-05-18 08:44:00,
2013-05-18 03:45:00,74.3,71.4,29.95,ENE,60,0.0,0.9,91,0.00,,,0.00,0.0,meteobridge,2013-05-18 08:45:00,
2013-05-18 03:46:00,74.3,71.4,29.95,SE,139,0.9,8.1,91,0.00,,,0.00,0.0,meteobridge,2013-05-18 08:46:00,
2013-05-18 03:47:00,74.3,71.4,29.95,SSW,207,4.0,8.1,91,0.00,,,0.00,0.0,meteobridge,2013-05-18 08:47:00,
2013-05-18 03:49:00,74.3,71.4,29.95,SSE,150,2.9,6.0,91,0.00,,,0.00,0.0,meteobridge,2013-05-18 08:49:00,
2013-05-18 03:50:00,74.3,71.4,29.95,SE,129,0.9,4.9,91,0.00,,,0.00,0.0,meteobridge,2013-05-18 08:50:00,
2013-05-18 03:51:00,74.3,71.4,29.95,SE,129,0.9,4.9,91,0.00,,,0.00,0.0,meteobridge,2013-05-18 08:51:00,
2013-05-18 03:53:00,74.3,71.4,29.95,SE,131,0.0,2.9,91,0.00,,,0.00,0.0,meteobridge,2013-05-18 08:53:00,
2013-05-18 03:55:00,74.3,71.4,29.95,SSE,162,2.0,4.0,91,0.00,,,0.00,0.0,meteobridge,2013-05-18 08:55:00,
2013-05-18 03:57:00,74.3,71.4,29.95,SSE,162,2.9,2.9,91,0.00,,,0.00,0.0,meteobridge,2013-05-18 08:57:00,
2013-05-18 03:58:00,74.3,71.4,29.95,ESE,108,0.0,4.0,91,0.00,,,0.00,0.0,meteobridge,2013-05-18 08:58:00,
2013-05-18 03:59:00,74.5,71.6,29.95,ESE,108,0.0,4.0,91,0.00,,,0.00,0.0,meteobridge,2013-05-18 08:59:00,
2013-05-18 04:00:00,74.5,71.6,29.95,SE,132,2.0,4.0,91,0.00,,,0.00,0.0,meteobridge,2013-05-18 09:00:00,
2013-05-18 04:02:00,74.3,71.4,29.95,SSE,157,2.0,2.9,91,0.00,,,0.00,0.0,meteobridge,2013-05-18 09:02:00,
2013-05-18 04:03:00,74.3,71.4,29.95,SSE,165,6.0,10.1,91,0.00,,,0.00,0.0,meteobridge,2013-05-18 09:03:00,
2013-05-18 04:04:00,74.3,71.4,29.95,ESE,114,4.0,10.1,91,0.00,,,0.00,0.0,meteobridge,2013-05-18 09:04:00,
2013-05-18 04:08:00,74.3,71.4,29.95,SE,146,0.9,2.0,91,0.00,,,0.00,0.0,meteobridge,2013-05-18 09:08:00,
2013-05-18 04:09:00,74.3,71.4,29.95,SE,130,4.0,4.0,91,0.00,,,0.00,0.0,meteobridge,2013-05-18 09:09:00,
2013-05-18 04:10:00,74.3,71.4,29.95,SE,140,0.9,4.9,91,0.00,,,0.00,0.0,meteobridge,2013-05-18 09:10:00,
2013-05-18 04:11:00,74.5,71.6,29.95,SE,142,0.9,4.9,91,0.00,,,0.00,0.0,meteobridge,2013-05-18 09:11:00,
2013-05-18 04:14:00,74.5,71.4,29.95,SSE,152,0.0,2.9,90,0.00,,,0.00,0.0,meteobridge,2013-05-18 09:14:00,
2013-05-18 04:15:00,74.5,71.4,29.95,SSE,150,2.0,2.0,90,0.00,,,0.00,0.0,meteobridge,2013-05-18 09:15:00,
2013-05-18 04:16:00,74.5,71.4,29.95,SSE,150,2.9,4.0,90,0.00,,,0.00,0.0,meteobridge,2013-05-18 09:16:00,
2013-05-18 04:18:00,74.5,71.4,29.95,SSE,165,0.9,4.0,90,0.00,,,0.00,0.0,meteobridge,2013-05-18 09:18:00,
2013-05-18 04:19:00,74.5,71.4,29.95,SSW,202,0.0,4.0,90,0.00,,,0.00,0.0,meteobridge,2013-05-18 09:19:00,
2013-05-18 04:20:00,74.5,71.4,29.95,SSE,155,4.9,10.1,90,0.00,,,0.00,0.0,meteobridge,2013-05-18 09:20:00,
2013-05-18 04:21:00,74.5,71.4,29.95,SSE,159,0.0,10.1,90,0.00,,,0.00,0.0,meteobridge,2013-05-18 09:21:00,
2013-05-18 04:22:00,74.5,71.4,29.95,ESE,107,0.9,4.0,90,0.00,,,0.00,0.0,meteobridge,2013-05-18 09:22:00,
2013-05-18 04:23:00,74.5,71.4,29.95,ESE,107,0.0,2.0,90,0.00,,,0.00,0.0,meteobridge,2013-05-18 09:23:00,
2013-05-18 04:24:00,74.5,71.4,29.95,SE,128,2.9,4.9,90,0.00,,,0.00,0.0,meteobridge,2013-05-18 09:24:00,
2013-05-18 04:26:00,74.5,71.4,29.95,SE,131,0.0,4.9,90,0.00,,,0.00,0.0,meteobridge,2013-05-18 09:26:00,
2013-05-18 04:27:00,74.5,71.4,29.95,SE,131,0.9,2.0,90,0.00,,,0.00,0.0,meteobridge,2013-05-18 09:27:00,
2013-05-18 04:28:00,74.5,71.4,29.95,ESE,119,2.0,2.9,90,0.00,,,0.00,0.0,meteobridge,2013-05-18 09:28:00,
2013-05-18 04:30:00,74.5,71.4,29.95,South,181,2.0,4.9,90,0.00,,,0.00,0.0,meteobridge,2013-05-18 09:30:00,
2013-05-18 04:31:00,74.5,71.4,29.95,SW,233,0.0,4.0,90,0.00,,,0.00,0.0,meteobridge,2013-05-18 09:31:00,
2013-05-18 04:33:00,74.5,71.4,29.95,SSE,154,2.9,4.0,90,0.00,,,0.00,0.0,meteobridge,2013-05-18 09:33:00,
2013-05-18 04:35:00,74.5,71.4,29.95,SSE,154,0.0,2.0,90,0.00,,,0.00,0.0,meteobridge,2013-05-18 09:35:00,
2013-05-18 04:37:00,74.5,71.4,29.95,SSE,154,0.9,2.9,90,0.00,,,0.00,0.0,meteobridge,2013-05-18 09:37:00,
2013-05-18 04:38:00,74.3,71.2,29.95,SSE,155,0.0,2.9,90,0.00,,,0.00,0.0,meteobridge,2013-05-18 09:38:00,
2013-05-18 04:39:00,74.3,71.2,29.95,SSE,155,0.0,2.0,90,0.00,,,0.00,0.0,meteobridge,2013-05-18 09:39:00,
2013-05-18 04:40:00,74.5,71.4,29.95,SE,141,2.0,2.0,90,0.00,,,0.00,0.0,meteobridge,2013-05-18 09:40:00,
2013-05-18 04:41:00,74.3,71.2,29.95,SE,144,0.9,2.0,90,0.00,,,0.00,0.0,meteobridge,2013-05-18 09:41:00,
2013-05-18 04:42:00,74.3,71.4,29.95,SSW,199,2.0,2.9,91,0.00,,,0.00,0.0,meteobridge,2013-05-18 09:42:00,
2013-05-18 04:44:00,74.3,71.4,29.95,ESE,122,0.9,4.9,91,0.00,,,0.00,0.0,meteobridge,2013-05-18 09:44:00,
2013-05-18 04:47:00,74.1,71.2,29.95,ESE,105,0.9,2.0,91,0.00,,,0.00,0.0,meteobridge,2013-05-18 09:47:00,
2013-05-18 04:49:00,74.1,71.2,29.95,ESE,105,0.0,2.0,91,0.00,,,0.00,0.0,meteobridge,2013-05-18 09:49:00,
2013-05-18 04:52:00,74.1,71.2,29.95,SSE,159,0.9,4.0,91,0.00,,,0.00,0.0,meteobridge,2013-05-18 09:52:00,
2013-05-18 04:54:00,74.1,71.2,29.95,SSE,159,0.9,2.9,91,0.00,,,0.00,0.0,meteobridge,2013-05-18 09:54:00,
2013-05-18 04:55:00,74.1,71.2,29.95,SSE,159,0.9,0.9,91,0.00,,,0.00,0.0,meteobridge,2013-05-18 09:55:00,
2013-05-18 04:57:00,74.1,71.2,29.95,ESE,115,0.9,2.9,91,0.00,,,0.00,0.0,meteobridge,2013-05-18 09:57:00,
2013-05-18 04:58:00,74.1,71.2,29.95,ESE,114,0.0,2.9,91,0.00,,,0.00,0.0,meteobridge,2013-05-18 09:58:00,
2013-05-18 04:59:00,74.1,71.2,29.95,ESE,114,2.0,2.9,91,0.00,,,0.00,0.0,meteobridge,2013-05-18 09:59:00,
2013-05-18 05:00:00,74.1,71.2,29.95,SE,140,0.0,2.9,91,0.00,,,0.00,0.0,meteobridge,2013-05-18 10:00:00,
2013-05-18 05:03:00,74.1,71.2,29.95,SW,217,2.0,2.9,91,0.00,,,0.00,0.0,meteobridge,2013-05-18 10:03:00,
2013-05-18 05:04:00,74.1,71.2,29.95,South,186,2.0,2.9,91,0.00,,,0.00,0.0,meteobridge,2013-05-18 10:04:00,
2013-05-18 05:05:00,74.1,71.2,29.95,SSE,157,2.9,2.9,91,0.00,,,0.00,0.0,meteobridge,2013-05-18 10:05:00,
2013-05-18 05:06:00,73.9,71.1,29.95,ESE,108,0.9,4.0,91,0.00,,,0.00,0.0,meteobridge,2013-05-18 10:06:00,
2013-05-18 05:10:00,73.9,71.1,29.95,ESE,108,0.9,0.9,91,0.00,,,0.00,0.0,meteobridge,2013-05-18 10:10:00,
2013-05-18 05:11:00,73.9,71.1,29.95,ESE,108,0.9,0.9,91,0.00,,,0.00,0.0,meteobridge,2013-05-18 10:11:00,
2013-05-18 05:16:00,73.9,71.4,29.95,SSE,155,2.9,4.9,92,0.00,,,0.00,0.0,meteobridge,2013-05-18 10:16:00,
2013-05-18 05:17:00,74.1,71.6,29.95,SSW,193,0.0,4.0,92,0.00,,,0.00,0.0,meteobridge,2013-05-18 10:17:00,
2013-05-18 05:21:00,74.1,71.2,29.95,SSE,159,2.9,4.0,91,0.00,,,0.00,0.0,meteobridge,2013-05-18 10:21:00,
2013-05-18 05:22:00,74.1,71.6,29.95,South,175,0.0,4.0,92,0.00,,,0.00,0.0,meteobridge,2013-05-18 10:22:00,
2013-05-18 05:23:00,74.1,71.6,29.95,South,175,0.9,4.0,92,0.00,,,0.00,0.0,meteobridge,2013-05-18 10:23:00,
2013-05-18 05:25:00,74.1,71.6,29.95,NNW,340,0.9,2.0,92,0.00,,,0.00,0.0,meteobridge,2013-05-18 10:25:00,
2013-05-18 05:27:00,74.1,71.6,29.95,SE,144,0.0,2.9,92,0.00,,,0.00,0.0,meteobridge,2013-05-18 10:27:00,
2013-05-18 05:28:00,74.1,71.6,29.95,SSE,151,0.9,2.0,92,0.00,,,0.00,0.0,meteobridge,2013-05-18 10:28:00,
2013-05-18 05:30:00,74.1,71.2,29.95,SSE,151,0.0,0.9,91,0.00,,,0.00,0.0,meteobridge,2013-05-18 10:30:00,
2013-05-18 05:33:00,73.9,71.4,29.95,South,175,0.0,8.1,92,0.00,,,0.00,0.0,meteobridge,2013-05-18 10:33:00,
2013-05-18 05:34:00,73.9,71.4,29.95,South,175,0.9,4.9,92,0.00,,,0.00,0.0,meteobridge,2013-05-18 10:34:00,
2013-05-18 05:35:00,73.9,71.4,29.95,SE,136,0.9,2.9,92,0.00,,,0.00,0.0,meteobridge,2013-05-18 10:35:00,
2013-05-18 05:38:00,73.9,71.4,29.95,SW,217,2.9,4.9,92,0.00,,,0.00,0.0,meteobridge,2013-05-18 10:38:00,
2013-05-18 05:39:00,73.9,71.4,29.95,SE,128,2.0,4.0,92,0.00,,,0.00,0.0,meteobridge,2013-05-18 10:39:00,
2013-05-18 05:40:00,73.9,71.4,29.95,SE,145,0.9,4.0,92,0.00,,,0.00,0.0,meteobridge,2013-05-18 10:40:00,
2013-05-18 05:44:00,73.9,71.4,29.95,SE,136,0.0,0.0,92,0.00,,,0.00,0.0,meteobridge,2013-05-18 10:44:00,
2013-05-18 05:45:00,73.9,71.4,29.95,SE,136,2.0,2.0,92,0.00,,,0.00,0.0,meteobridge,2013-05-18 10:45:00,
2013-05-18 05:47:00,73.9,71.4,29.95,SE,137,0.9,2.0,92,0.00,,,0.00,0.0,meteobridge,2013-05-18 10:47:00,
2013-05-18 05:50:00,73.9,71.4,29.96,SE,137,0.0,0.9,92,0.00,,,0.00,0.0,meteobridge,2013-05-18 10:50:00,
2013-05-18 05:51:00,73.9,71.4,29.96,SE,137,0.0,0.9,92,0.00,,,0.00,0.0,meteobridge,2013-05-18 10:51:00,
2013-05-18 05:52:00,73.9,71.4,29.96,SE,137,0.9,0.9,92,0.00,,,0.00,0.0,meteobridge,2013-05-18 10:52:00,
2013-05-18 05:53:00,73.9,71.4,29.96,SE,138,0.9,2.9,92,0.00,,,0.00,0.0,meteobridge,2013-05-18 10:53:00,
2013-05-18 05:56:00,73.9,71.4,29.96,SSW,198,2.0,2.9,92,0.00,,,0.00,0.0,meteobridge,2013-05-18 10:56:00,
2013-05-18 05:57:00,73.9,71.4,29.96,SSW,200,0.0,2.9,92,0.00,,,0.00,0.0,meteobridge,2013-05-18 10:57:00,
2013-05-18 05:58:00,73.9,71.4,29.96,SSW,200,0.0,0.9,92,0.00,,,0.00,0.0,meteobridge,2013-05-18 10:58:00,
2013-05-18 05:59:00,73.9,71.4,29.96,SSW,200,0.0,0.9,92,0.00,,,0.00,0.0,meteobridge,2013-05-18 10:59:00,
2013-05-18 06:01:00,73.9,71.4,29.96,SSW,200,0.0,0.9,92,0.00,,,0.00,0.0,meteobridge,2013-05-18 11:01:00,
2013-05-18 06:02:00,73.9,71.4,29.96,SSW,200,2.0,2.0,92,0.00,,,0.00,0.0,meteobridge,2013-05-18 11:02:00,
2013-05-18 06:03:00,73.9,71.4,29.96,SSW,200,0.9,2.0,92,0.00,,,0.00,0.0,meteobridge,2013-05-18 11:03:00,
2013-05-18 06:04:00,73.9,71.4,29.96,SSW,200,0.0,2.0,92,0.00,,,0.00,0.0,meteobridge,2013-05-18 11:04:00,
2013-05-18 06:05:00,73.9,71.4,29.96,SSE,159,4.0,4.9,92,0.00,,,0.00,0.0,meteobridge,2013-05-18 11:05:00,
2013-05-18 06:06:00,73.9,71.4,29.96,SSE,159,0.0,4.9,92,0.00,,,0.00,0.0,meteobridge,2013-05-18 11:06:00,
2013-05-18 06:09:00,73.9,71.4,29.96,SSE,159,0.0,0.9,92,0.00,,,0.00,0.0,meteobridge,2013-05-18 11:09:00,
2013-05-18 06:10:00,73.9,71.4,29.96,SSE,159,0.0,0.9,92,0.00,,,0.00,0.0,meteobridge,2013-05-18 11:10:00,
2013-05-18 06:11:00,73.9,71.4,29.96,SE,131,0.0,2.0,92,0.00,,,0.00,0.0,meteobridge,2013-05-18 11:11:00,
2013-05-18 06:13:00,73.9,71.4,29.96,SE,127,2.9,4.9,92,0.00,,,0.00,0.0,meteobridge,2013-05-18 11:13:00,
2013-05-18 06:15:00,73.9,71.4,29.96,SE,136,0.0,4.0,92,0.00,,,0.00,5.0,meteobridge,2013-05-18 11:15:00,
2013-05-18 06:16:00,73.9,71.4,29.96,SE,136,0.0,2.0,92,0.00,,,0.00,5.0,meteobridge,2013-05-18 11:16:00,
2013-05-18 06:17:00,73.9,71.4,29.96,SE,136,0.0,0.9,92,0.00,,,0.00,5.0,meteobridge,2013-05-18 11:17:00,
2013-05-18 06:18:00,73.9,71.4,29.96,SW,215,0.9,2.9,92,0.00,,,0.00,5.0,meteobridge,2013-05-18 11:18:00,
2013-05-18 06:21:00,73.9,71.4,29.96,SW,215,0.0,2.0,92,0.00,,,0.00,5.0,meteobridge,2013-05-18 11:21:00,
2013-05-18 06:22:00,73.9,71.4,29.96,SSW,213,0.0,2.0,92,0.00,,,0.00,5.0,meteobridge,2013-05-18 11:22:00,
2013-05-18 06:23:00,73.9,71.4,29.96,SE,128,0.0,0.9,92,0.00,,,0.00,5.0,meteobridge,2013-05-18 11:23:00,
2013-05-18 06:24:00,73.8,71.2,29.96,ESE,121,2.9,2.9,92,0.00,,,0.00,5.0,meteobridge,2013-05-18 11:24:00,
2013-05-18 06:26:00,73.8,71.2,29.97,SSE,163,2.0,4.0,92,0.00,,,0.00,7.0,meteobridge,2013-05-18 11:26:00,
2013-05-18 06:27:00,73.9,71.4,29.97,SSE,163,0.0,4.0,92,0.00,,,0.00,7.0,meteobridge,2013-05-18 11:27:00,
2013-05-18 06:28:00,73.8,71.2,29.97,SSW,210,0.9,4.0,92,0.00,,,0.00,7.0,meteobridge,2013-05-18 11:28:00,
2013-05-18 06:29:00,73.9,71.4,29.97,SSW,210,0.0,4.0,92,0.00,,,0.00,7.0,meteobridge,2013-05-18 11:29:00,
2013-05-18 06:31:00,73.9,71.4,29.97,South,184,2.0,2.9,92,0.00,,,0.00,9.0,meteobridge,2013-05-18 11:31:00,
2013-05-18 06:33:00,73.9,71.4,29.97,South,179,0.0,2.9,92,0.00,,,0.00,9.0,meteobridge,2013-05-18 11:33:00,
2013-05-18 06:34:00,73.9,71.4,29.97,South,179,0.0,2.0,92,0.00,,,0.00,9.0,meteobridge,2013-05-18 11:34:00,
2013-05-18 06:36:00,73.9,71.4,29.97,South,179,0.0,2.0,92,0.00,,,0.00,9.0,meteobridge,2013-05-18 11:36:00,
2013-05-18 06:37:00,73.9,71.4,29.97,South,188,0.0,4.9,92,0.00,,,0.00,11.0,meteobridge,2013-05-18 11:37:00,
2013-05-18 06:38:00,73.9,71.4,29.97,South,188,0.9,4.9,92,0.00,,,0.00,11.0,meteobridge,2013-05-18 11:38:00,
2013-05-18 06:39:00,73.9,71.4,29.97,South,188,0.9,2.0,92,0.00,,,0.00,12.0,meteobridge,2013-05-18 11:39:00,
2013-05-18 06:40:00,73.9,71.4,29.97,South,188,0.9,2.0,92,0.00,,,0.00,12.0,meteobridge,2013-05-18 11:40:00,
2013-05-18 06:41:00,73.9,71.4,29.97,South,187,0.0,0.9,92,0.00,,,0.00,12.0,meteobridge,2013-05-18 11:41:00,
2013-05-18 06:42:00,73.9,71.4,29.97,South,187,0.0,0.0,92,0.00,,,0.00,14.0,meteobridge,2013-05-18 11:42:00,
2013-05-18 06:43:00,73.9,71.4,29.97,South,187,0.0,0.9,92,0.00,,,0.00,14.0,meteobridge,2013-05-18 11:43:00,
2013-05-18 06:45:00,73.9,71.4,29.98,SSE,161,4.0,4.9,92,0.00,,,0.00,18.0,meteobridge,2013-05-18 11:45:00,
2013-05-18 06:46:00,73.9,71.4,29.97,SSE,161,0.0,4.9,92,0.00,,,0.00,26.0,meteobridge,2013-05-18 11:46:00,
2013-05-18 06:48:00,73.9,71.4,29.97,SSE,161,0.0,0.0,92,0.00,,,0.00,37.0,meteobridge,2013-05-18 11:48:00,
2013-05-18 06:49:00,73.9,71.4,29.97,SSE,161,0.0,0.0,92,0.00,,,0.00,39.0,meteobridge,2013-05-18 11:49:00,
2013-05-18 06:51:00,73.9,71.4,29.98,SSE,161,0.9,0.9,92,0.00,,,0.00,39.0,meteobridge,2013-05-18 11:51:00,
2013-05-18 06:52:00,73.9,71.4,29.98,SSE,157,0.0,2.0,92,0.00,,,0.00,37.0,meteobridge,2013-05-18 11:52:00,
2013-05-18 06:54:00,73.9,71.4,29.98,SSE,164,0.9,2.9,92,0.00,,,0.00,32.0,meteobridge,2013-05-18 11:54:00,
2013-05-18 06:55:00,73.9,71.4,29.98,South,180,0.0,2.9,92,0.00,,,0.00,32.0,meteobridge,2013-05-18 11:55:00,
2013-05-18 06:57:00,73.9,71.4,29.98,SSE,163,4.0,4.0,92,0.00,,,0.00,30.0,meteobridge,2013-05-18 11:57:00,
2013-05-18 06:58:00,73.9,71.4,29.98,East,96,2.0,6.9,92,0.00,,,0.00,30.0,meteobridge,2013-05-18 11:58:00,
2013-05-18 06:59:00,73.9,71.4,29.98,East,88,0.0,6.9,92,0.00,,,0.00,30.0,meteobridge,2013-05-18 11:59:00,
2013-05-18 07:02:00,73.9,71.4,29.98,SE,129,0.9,2.9,92,0.00,,,0.00,30.0,meteobridge,2013-05-18 12:02:00,
2013-05-18 07:03:00,73.9,71.1,29.98,SSE,149,2.0,4.0,91,0.00,,,0.00,33.0,meteobridge,2013-05-18 12:03:00,
2013-05-18 07:04:00,73.9,71.1,29.98,SSW,202,0.0,2.9,91,0.00,,,0.00,35.0,meteobridge,2013-05-18 12:04:00,
2013-05-18 07:07:00,73.9,71.1,29.98,SSE,148,2.9,4.9,91,0.00,,,0.00,40.0,meteobridge,2013-05-18 12:07:00,
2013-05-18 07:08:00,73.9,71.1,29.98,SSE,148,2.0,4.9,91,0.00,,,0.00,40.0,meteobridge,2013-05-18 12:08:00,
2013-05-18 07:10:00,73.9,71.1,29.98,ESE,106,4.0,4.0,91,0.00,,,0.00,32.0,meteobridge,2013-05-18 12:10:00,
2013-05-18 07:12:00,73.8,70.9,29.98,SE,134,0.9,2.9,91,0.00,,,0.00,30.0,meteobridge,2013-05-18 12:12:00,
2013-05-18 07:13:00,73.8,70.9,29.98,SE,134,0.0,2.0,91,0.00,,,0.00,30.0,meteobridge,2013-05-18 12:13:00,
2013-05-18 07:15:00,73.8,71.2,29.98,SE,134,0.0,0.0,92,0.00,,,0.00,26.0,meteobridge,2013-05-18 12:15:00,
2013-05-18 07:16:00,73.8,71.2,29.98,SE,134,2.0,2.0,92,0.00,,,0.00,26.0,meteobridge,2013-05-18 12:16:00,
2013-05-18 07:17:00,73.8,71.2,29.98,SE,128,2.0,6.9,92,0.00,,,0.00,26.0,meteobridge,2013-05-18 12:17:00,
2013-05-18 07:18:00,73.8,71.2,29.98,ESE,106,4.0,6.0,92,0.00,,,0.00,32.0,meteobridge,2013-05-18 12:18:00,
2013-05-18 07:19:00,73.8,71.2,29.98,ESE,106,2.0,6.0,92,0.00,,,0.00,32.0,meteobridge,2013-05-18 12:19:00,
2013-05-18 07:21:00,73.8,71.2,29.98,ESE,106,0.0,0.9,92,0.00,,,0.00,33.0,meteobridge,2013-05-18 12:21:00,
2013-05-18 07:22:00,73.8,71.2,29.98,SSW,202,0.9,2.9,92,0.00,,,0.00,35.0,meteobridge,2013-05-18 12:22:00,
2013-05-18 07:24:00,73.8,71.2,29.98,SSW,202,0.0,0.9,92,0.00,,,0.00,42.0,meteobridge,2013-05-18 12:24:00,
2013-05-18 07:26:00,73.8,71.2,29.98,SSW,202,0.0,0.9,92,0.00,,,0.00,40.0,meteobridge,2013-05-18 12:26:00,
2013-05-18 07:28:00,73.8,71.2,29.98,SSW,202,0.9,0.9,92,0.00,,,0.00,70.0,meteobridge,2013-05-18 12:28:00,
2013-05-18 07:30:00,73.9,71.4,29.98,SE,140,0.0,4.9,92,0.00,,,0.00,86.0,meteobridge,2013-05-18 12:30:00,
2013-05-18 07:33:00,73.9,71.4,29.99,SSE,157,0.0,2.9,92,0.00,,,0.00,79.0,meteobridge,2013-05-18 12:33:00,
2013-05-18 07:34:00,73.9,71.4,29.99,SSE,157,0.0,2.9,92,0.00,,,0.00,72.0,meteobridge,2013-05-18 12:34:00,
2013-05-18 07:35:00,74.1,71.6,29.99,SSE,157,0.0,0.9,92,0.00,,,0.00,77.0,meteobridge,2013-05-18 12:35:00,
2013-05-18 07:36:00,74.1,71.6,29.99,SSE,157,0.0,0.9,92,0.00,,,0.00,69.0,meteobridge,2013-05-18 12:36:00,
2013-05-18 07:38:00,74.1,71.6,29.99,ESE,103,0.0,6.9,92,0.00,,,0.00,72.0,meteobridge,2013-05-18 12:38:00,
2013-05-18 07:39:00,74.1,71.6,29.99,ESE,103,0.0,2.0,92,0.00,,,0.00,72.0,meteobridge,2013-05-18 12:39:00,
2013-05-18 07:41:00,74.3,71.8,29.99,ESE,103,0.0,0.9,92,0.00,,,0.00,72.0,meteobridge,2013-05-18 12:41:00,
2013-05-18 07:42:00,74.3,71.8,29.99,ESE,103,0.9,0.9,92,0.00,,,0.00,81.0,meteobridge,2013-05-18 12:42:00,
2013-05-18 07:45:00,74.5,72.0,29.99,ESE,103,0.9,2.0,92,0.00,,,0.00,90.0,meteobridge,2013-05-18 12:45:00,
2013-05-18 07:46:00,74.5,72.0,29.99,ESE,103,0.9,2.0,92,0.00,,,0.00,93.0,meteobridge,2013-05-18 12:46:00,
2013-05-18 07:47:00,74.5,72.0,29.99,East,88,0.9,4.0,92,0.00,,,0.00,84.0,meteobridge,2013-05-18 12:47:00,
2013-05-18 07:51:00,74.5,71.6,29.99,SE,135,0.9,2.0,91,0.00,,,0.00,70.0,meteobridge,2013-05-18 12:51:00,
2013-05-18 07:52:00,74.5,71.6,29.99,SE,139,2.0,2.9,91,0.00,,,0.00,83.0,meteobridge,2013-05-18 12:52:00,
2013-05-18 07:53:00,74.5,71.6,29.99,SE,139,0.0,2.9,91,0.00,,,0.00,105.0,meteobridge,2013-05-18 12:53:00,
2013-05-18 07:56:00,74.5,71.6,29.99,South,178,0.9,4.0,91,0.00,,,0.00,118.0,meteobridge,2013-05-18 12:56:00,
2013-05-18 07:57:00,74.5,71.6,29.99,SE,130,2.0,4.0,91,0.00,,,0.00,141.0,meteobridge,2013-05-18 12:57:00,
2013-05-18 07:58:00,74.7,71.8,29.99,SE,132,0.0,4.0,91,0.00,,,0.00,160.0,meteobridge,2013-05-18 12:58:00,
2013-05-18 07:59:00,74.7,71.8,29.99,SE,132,0.0,2.9,91,0.00,,,0.00,160.0,meteobridge,2013-05-18 12:59:00,
2013-05-18 08:02:00,74.8,72.0,29.99,SSE,155,0.0,0.9,91,0.00,,,0.00,132.0,meteobridge,2013-05-18 13:02:00,
2013-05-18 08:03:00,74.8,72.0,29.99,South,187,2.0,2.9,91,0.00,,,0.00,132.0,meteobridge,2013-05-18 13:03:00,
2013-05-18 08:04:00,74.8,72.0,29.99,SSE,161,2.0,2.9,91,0.00,,,0.00,130.0,meteobridge,2013-05-18 13:04:00,
2013-05-18 08:08:00,74.8,71.8,29.99,South,176,4.9,4.9,90,0.00,,,0.00,100.0,meteobridge,2013-05-18 13:08:00,
2013-05-18 08:09:00,74.8,71.8,29.99,SW,219,4.0,6.0,90,0.00,,,0.00,91.0,meteobridge,2013-05-18 13:09:00,
2013-05-18 08:10:00,74.8,71.8,29.99,SW,225,2.0,6.0,90,0.00,,,0.00,116.0,meteobridge,2013-05-18 13:10:00,
2013-05-18 08:14:00,74.8,71.8,29.99,SE,138,2.0,4.0,90,0.00,,,0.00,165.0,meteobridge,2013-05-18 13:14:00,
2013-05-18 08:15:00,74.7,71.6,29.99,SE,138,2.0,4.0,90,0.00,,,0.00,155.0,meteobridge,2013-05-18 13:15:00,
2013-05-18 08:16:00,74.8,71.8,29.99,SSE,158,8.9,13.0,90,0.00,,,0.00,137.0,meteobridge,2013-05-18 13:16:00,
2013-05-18 08:20:00,74.8,71.4,29.99,SSE,163,0.9,6.9,89,0.00,,,0.00,160.0,meteobridge,2013-05-18 13:20:00,
2013-05-18 08:21:00,74.8,71.4,29.99,South,180,2.9,4.9,89,0.00,,,0.00,176.0,meteobridge,2013-05-18 13:21:00,
2013-05-18 08:22:00,75.0,71.6,29.99,SSE,157,4.0,6.0,89,0.00,,,0.00,172.0,meteobridge,2013-05-18 13:22:00,
2013-05-18 08:25:00,75.0,71.6,29.99,SE,142,2.9,8.9,89,0.00,,,0.00,172.0,meteobridge,2013-05-18 13:25:00,
2013-05-18 08:27:00,75.2,71.8,29.99,South,190,2.0,4.9,89,0.00,,,0.00,163.0,meteobridge,2013-05-18 13:27:00,
2013-05-18 08:28:00,75.2,71.4,29.99,South,173,0.9,2.9,88,0.00,,,0.00,178.0,meteobridge,2013-05-18 13:28:00,
2013-05-18 08:30:00,75.6,71.8,29.99,SE,126,0.9,2.9,88,0.00,,,0.00,165.0,meteobridge,2013-05-18 13:30:00,
2013-05-18 08:31:00,75.6,71.8,29.99,East,94,6.9,8.1,88,0.00,,,0.00,165.0,meteobridge,2013-05-18 13:31:00,
2013-05-18 08:33:00,75.6,71.8,29.99,SW,215,2.0,6.9,88,0.00,,,0.00,151.0,meteobridge,2013-05-18 13:33:00,
2013-05-18 08:34:00,75.4,71.6,29.99,South,170,0.0,4.0,88,0.00,,,0.00,151.0,meteobridge,2013-05-18 13:34:00,
2013-05-18 08:36:00,75.6,71.8,29.99,SSE,152,0.0,2.0,88,0.00,,,0.00,195.0,meteobridge,2013-05-18 13:36:00,
2013-05-18 08:37:00,75.6,71.8,29.99,SW,229,0.9,4.0,88,0.00,,,0.00,253.0,meteobridge,2013-05-18 13:37:00,
2013-05-18 08:38:00,75.6,71.8,29.99,South,182,0.9,4.0,88,0.00,,,0.00,169.0,meteobridge,2013-05-18 13:38:00,
2013-05-18 08:40:00,75.6,71.8,29.99,SSE,154,2.0,6.9,88,0.00,,,0.00,214.0,meteobridge,2013-05-18 13:40:00,
2013-05-18 08:41:00,75.6,71.8,29.99,SW,215,4.9,4.9,88,0.00,,,0.00,380.0,meteobridge,2013-05-18 13:41:00,
2013-05-18 08:42:00,75.6,71.8,29.99,SSE,163,0.9,4.9,88,0.00,,,0.00,135.0,meteobridge,2013-05-18 13:42:00,
2013-05-18 08:44:00,75.6,71.8,29.99,SSW,213,2.9,4.0,88,0.00,,,0.00,127.0,meteobridge,2013-05-18 13:44:00,
2013-05-18 08:45:00,75.6,71.4,29.99,SSW,205,2.0,4.0,87,0.00,,,0.00,127.0,meteobridge,2013-05-18 13:45:00,
2013-05-18 08:46:00,75.7,72.0,29.99,SSE,166,2.0,2.9,88,0.00,,,0.00,436.0,meteobridge,2013-05-18 13:46:00,
2013-05-18 08:47:00,75.7,72.0,29.99,SSW,201,6.0,6.9,88,0.00,,,0.00,213.0,meteobridge,2013-05-18 13:47:00,
2013-05-18 08:49:00,75.7,72.0,29.99,SSE,157,0.9,6.0,88,0.00,,,0.00,446.0,meteobridge,2013-05-18 13:49:00,
2013-05-18 08:50:00,75.7,72.0,29.99,SSE,157,0.0,4.9,88,0.00,,,0.00,429.0,meteobridge,2013-05-18 13:50:00,
2013-05-18 08:52:00,76.3,72.1,29.99,SSE,163,2.0,4.0,87,0.00,,,0.00,192.0,meteobridge,2013-05-18 13:52:00,
2013-05-18 08:53:00,76.3,72.1,29.99,SE,134,4.0,4.0,87,0.00,,,0.00,192.0,meteobridge,2013-05-18 13:53:00,
2013-05-18 08:54:00,76.3,72.1,29.99,SSW,200,6.9,6.9,87,0.00,,,0.00,192.0,meteobridge,2013-05-18 13:54:00,
2013-05-18 08:55:00,76.3,71.8,29.99,SE,144,4.0,8.1,86,0.00,,,0.00,137.0,meteobridge,2013-05-18 13:55:00,
2013-05-18 08:57:00,76.1,71.6,30.00,SSW,198,0.0,4.9,86,0.00,,,0.00,137.0,meteobridge,2013-05-18 13:57:00,
2013-05-18 08:58:00,76.1,71.6,30.00,SSE,150,6.9,6.9,86,0.00,,,0.00,200.0,meteobridge,2013-05-18 13:58:00,
2013-05-18 08:59:00,75.9,71.4,30.00,South,171,0.0,8.1,86,0.00,,,0.00,267.0,meteobridge,2013-05-18 13:59:00,
2013-05-18 09:00:00,75.9,71.8,30.00,SE,134,0.9,6.0,87,0.00,,,0.00,267.0,meteobridge,2013-05-18 14:00:00,
2013-05-18 09:02:00,75.9,71.8,30.00,SE,127,2.0,4.9,87,0.00,,,0.00,186.0,meteobridge,2013-05-18 14:02:00,
2013-05-18 09:03:00,75.9,71.8,30.00,SSE,150,4.0,4.9,87,0.00,,,0.00,186.0,meteobridge,2013-05-18 14:03:00,
2013-05-18 09:04:00,76.1,72.0,30.00,SSE,152,0.0,4.9,87,0.00,,,0.00,292.0,meteobridge,2013-05-18 14:04:00,
2013-05-18 09:06:00,76.1,72.0,30.00,SSW,213,2.9,4.0,87,0.00,,,0.00,153.0,meteobridge,2013-05-18 14:06:00,
2013-05-18 09:08:00,76.1,72.0,30.00,SSE,161,0.0,4.9,87,0.00,,,0.00,475.0,meteobridge,2013-05-18 14:08:00,
2013-05-18 09:09:00,76.3,72.1,30.00,SSE,161,2.9,2.9,87,0.00,,,0.00,475.0,meteobridge,2013-05-18 14:09:00,
2013-05-18 09:10:00,76.3,72.1,30.00,SSE,161,0.9,4.0,87,0.00,,,0.00,475.0,meteobridge,2013-05-18 14:10:00,
2013-05-18 09:13:00,76.8,72.3,30.00,South,171,0.9,2.9,86,0.00,,,0.00,200.0,meteobridge,2013-05-18 14:13:00,
2013-05-18 09:14:00,76.8,72.3,30.00,SSW,203,0.9,4.9,86,0.00,,,0.00,200.0,meteobridge,2013-05-18 14:14:00,
2013-05-18 09:15:00,77.0,72.5,29.99,SSE,155,2.9,6.0,86,0.00,,,0.00,200.0,meteobridge,2013-05-18 14:15:00,
2013-05-18 09:16:00,77.0,72.1,29.99,ESE,111,6.9,8.9,85,0.00,,,0.00,200.0,meteobridge,2013-05-18 14:16:00,
2013-05-18 09:18:00,76.8,72.0,29.99,SW,235,0.9,6.9,85,0.00,,,0.00,193.0,meteobridge,2013-05-18 14:18:00,
2013-05-18 09:19:00,76.8,72.3,29.99,SSW,212,2.0,6.0,86,0.00,,,0.00,193.0,meteobridge,2013-05-18 14:19:00,
2013-05-18 09:21:00,77.0,72.1,30.00,SSE,164,4.0,4.9,85,0.00,,,0.00,167.0,meteobridge,2013-05-18 14:21:00,
2013-05-18 09:23:00,76.8,72.0,30.00,SSE,161,4.0,4.9,85,0.00,,,0.00,341.0,meteobridge,2013-05-18 14:23:00,
2013-05-18 09:24:00,76.8,72.0,29.99,SW,219,2.9,4.0,85,0.00,,,0.00,341.0,meteobridge,2013-05-18 14:24:00,
2013-05-18 09:26:00,77.2,72.3,29.99,SE,138,2.0,4.0,85,0.00,,,0.00,485.0,meteobridge,2013-05-18 14:26:00,
2013-05-18 09:27:00,77.2,72.3,29.99,ESE,113,2.0,4.0,85,0.00,,,0.00,485.0,meteobridge,2013-05-18 14:27:00,
2013-05-18 09:29:00,77.5,72.3,30.00,SSW,196,2.9,6.9,84,0.00,,,0.00,566.0,meteobridge,2013-05-18 14:29:00,
2013-05-18 09:30:00,77.5,72.3,30.00,SSW,210,2.9,6.9,84,0.00,,,0.00,561.0,meteobridge,2013-05-18 14:30:00,
2013-05-18 09:31:00,77.5,72.3,30.00,SE,146,0.9,6.0,84,0.00,,,0.00,494.0,meteobridge,2013-05-18 14:31:00,
2013-05-18 09:32:00,78.1,72.9,30.00,SSE,154,4.0,4.0,84,0.00,,,0.00,536.0,meteobridge,2013-05-18 14:32:00,
2013-05-18 09:33:00,78.1,72.5,30.00,SSE,150,4.0,4.9,83,0.00,,,0.00,555.0,meteobridge,2013-05-18 14:33:00,
2013-05-18 09:34:00,78.3,72.3,29.99,SE,124,0.9,8.1,82,0.00,,,0.00,522.0,meteobridge,2013-05-18 14:34:00,
2013-05-18 09:35:00,78.3,72.7,29.99,SSW,194,2.9,8.1,83,0.00,,,0.00,570.0,meteobridge,2013-05-18 14:35:00,
2013-05-18 09:36:00,78.4,72.9,29.99,SSE,163,2.9,4.0,83,0.00,,,0.00,575.0,meteobridge,2013-05-18 14:36:00,
2013-05-18 09:37:00,78.4,72.9,29.99,South,169,2.9,4.0,83,0.00,,,0.00,605.0,meteobridge,2013-05-18 14:37:00,
2013-05-18 09:38:00,78.4,72.5,30.00,ESE,116,2.9,6.0,82,0.00,,,0.00,527.0,meteobridge,2013-05-18 14:38:00,
2013-05-18 09:40:00,78.6,73.0,30.00,SSE,153,0.9,4.0,83,0.00,,,0.00,510.0,meteobridge,2013-05-18 14:40:00,
2013-05-18 09:42:00,79.2,73.2,30.00,South,186,2.9,6.9,82,0.00,,,0.00,589.0,meteobridge,2013-05-18 14:42:00,
2013-05-18 09:43:00,79.2,73.2,30.00,SE,134,2.0,6.9,82,0.00,,,0.00,584.0,meteobridge,2013-05-18 14:43:00,
2013-05-18 09:44:00,79.2,72.9,30.00,SSE,157,0.9,6.9,81,0.00,,,0.00,582.0,meteobridge,2013-05-18 14:44:00,
2013-05-18 09:45:00,79.5,73.6,30.00,SSE,159,4.0,6.9,82,0.00,,,0.00,580.0,meteobridge,2013-05-18 14:45:00,
2013-05-18 09:46:00,79.5,73.2,30.00,ESE,119,4.0,4.9,81,0.00,,,0.00,587.0,meteobridge,2013-05-18 14:46:00,
2013-05-18 09:48:00,79.5,72.9,30.00,East,89,2.0,6.0,80,0.00,,,0.00,610.0,meteobridge,2013-05-18 14:48:00,
2013-05-18 09:49:00,79.7,73.0,30.00,SSE,150,2.0,6.0,80,0.00,,,0.00,622.0,meteobridge,2013-05-18 14:49:00,
2013-05-18 09:51:00,79.5,72.5,30.00,SSW,209,4.0,4.9,79,0.00,,,0.00,626.0,meteobridge,2013-05-18 14:51:00,
2013-05-18 09:52:00,79.5,72.5,30.00,SSW,209,0.9,4.9,79,0.00,,,0.00,628.0,meteobridge,2013-05-18 14:52:00,
2013-05-18 09:53:00,79.7,73.0,30.00,SSW,209,0.9,4.0,80,0.00,,,0.00,603.0,meteobridge,2013-05-18 14:53:00,
2013-05-18 09:54:00,79.9,72.9,30.00,SSE,164,2.0,4.9,79,0.00,,,0.00,628.0,meteobridge,2013-05-18 14:54:00,
2013-05-18 09:55:00,79.9,72.9,29.99,SSE,164,0.0,4.9,79,0.00,,,0.00,633.0,meteobridge,2013-05-18 14:55:00,
2013-05-18 09:57:00,80.4,73.8,29.99,SSE,164,0.9,0.9,80,0.00,,,0.00,657.0,meteobridge,2013-05-18 14:57:00,
2013-05-18 09:59:00,80.8,73.2,30.00,SE,130,2.9,6.9,78,0.00,,,0.00,628.0,meteobridge,2013-05-18 14:59:00,
2013-05-18 10:00:00,80.6,72.7,29.99,South,175,4.9,6.9,77,0.00,,,0.00,482.0,meteobridge,2013-05-18 15:00:00,
2013-05-18 10:02:00,80.2,72.7,30.00,SSE,153,2.0,6.0,78,0.00,,,0.00,388.0,meteobridge,2013-05-18 15:02:00,
2013-05-18 10:03:00,80.1,72.5,30.00,SSE,150,4.9,6.0,78,0.00,,,0.00,471.0,meteobridge,2013-05-18 15:03:00,
2013-05-18 10:05:00,79.9,72.9,29.99,South,170,2.0,6.0,79,0.00,,,0.00,425.0,meteobridge,2013-05-18 15:05:00,
2013-05-18 10:07:00,79.7,72.7,29.99,SE,142,6.0,6.0,79,0.00,,,0.00,568.0,meteobridge,2013-05-18 15:07:00,
2013-05-18 10:08:00,79.7,72.1,29.99,SSE,147,4.9,6.0,78,0.00,,,0.00,568.0,meteobridge,2013-05-18 15:08:00,
2013-05-18 10:10:00,79.9,72.9,29.99,SSE,149,0.0,4.0,79,0.00,,,0.00,656.0,meteobridge,2013-05-18 15:10:00,
2013-05-18 10:11:00,80.1,73.0,29.99,ESE,105,2.0,6.0,79,0.00,,,0.00,668.0,meteobridge,2013-05-18 15:11:00,
2013-05-18 10:12:00,80.2,73.0,29.99,South,188,0.9,4.9,79,0.00,,,0.00,650.0,meteobridge,2013-05-18 15:12:00,
2013-05-18 10:14:00,80.4,72.5,29.99,SSE,153,2.0,2.9,77,0.00,,,0.00,650.0,meteobridge,2013-05-18 15:14:00,
2013-05-18 10:15:00,80.4,72.9,29.99,SSW,205,4.0,4.9,78,0.00,,,0.00,663.0,meteobridge,2013-05-18 15:15:00,
2013-05-18 10:16:00,80.4,72.9,29.99,SSW,205,2.0,4.9,78,0.00,,,0.00,663.0,meteobridge,2013-05-18 15:16:00,
2013-05-18 10:18:00,80.6,73.0,29.99,SSW,194,2.9,4.9,78,0.00,,,0.00,677.0,meteobridge,2013-05-18 15:18:00,
2013-05-18 10:19:00,80.6,73.0,29.99,SE,126,0.9,4.0,78,0.00,,,0.00,673.0,meteobridge,2013-05-18 15:19:00,
2013-05-18 10:21:00,81.0,73.4,29.99,SSE,162,0.9,6.9,78,0.00,,,0.00,684.0,meteobridge,2013-05-18 15:21:00,
2013-05-18 10:24:00,81.3,73.0,29.99,SSE,159,2.9,4.0,76,0.00,,,0.00,700.0,meteobridge,2013-05-18 15:24:00,
2013-05-18 10:26:00,81.7,73.4,29.99,SSE,153,4.0,6.0,76,0.00,,,0.00,726.0,meteobridge,2013-05-18 15:26:00,
2013-05-18 10:27:00,81.7,73.8,29.99,SSE,165,0.0,6.0,77,0.00,,,0.00,731.0,meteobridge,2013-05-18 15:27:00,
2013-05-18 10:29:00,82.0,74.1,29.99,SSE,159,2.9,6.9,77,0.00,,,0.00,747.0,meteobridge,2013-05-18 15:29:00,
2013-05-18 10:31:00,81.9,73.2,29.99,South,174,4.0,6.9,75,0.00,,,0.00,603.0,meteobridge,2013-05-18 15:31:00,
2013-05-18 10:32:00,81.9,73.9,29.99,SSW,194,0.9,6.9,77,0.00,,,0.00,585.0,meteobridge,2013-05-18 15:32:00,
2013-05-18 10:34:00,81.5,73.2,29.99,SE,142,4.9,6.0,76,0.00,,,0.00,554.0,meteobridge,2013-05-18 15:34:00,
2013-05-18 10:37:00,81.9,73.9,29.99,ESE,115,0.9,2.9,77,0.00,,,0.00,726.0,meteobridge,2013-05-18 15:37:00,
2013-05-18 10:40:00,83.3,75.0,29.99,SSE,166,0.0,0.9,76,0.00,,,0.00,686.0,meteobridge,2013-05-18 15:40:00,
2013-05-18 10:41:00,83.7,74.8,29.99,SSW,209,0.9,2.9,75,0.00,,,0.00,742.0,meteobridge,2013-05-18 15:41:00,
2013-05-18 10:42:00,83.5,74.3,29.99,SSW,194,2.9,4.0,74,0.00,,,0.00,742.0,meteobridge,2013-05-18 15:42:00,
2013-05-18 10:43:00,83.5,74.3,29.99,SSW,194,2.0,4.0,74,0.00,,,0.00,742.0,meteobridge,2013-05-18 15:43:00,
2013-05-18 10:45:00,82.9,73.8,29.99,SSE,158,2.0,6.9,74,0.00,,,0.00,742.0,meteobridge,2013-05-18 15:45:00,
2013-05-18 10:46:00,82.9,73.8,29.99,SSE,153,2.9,6.9,74,0.00,,,0.00,735.0,meteobridge,2013-05-18 15:46:00,
2013-05-18 10:48:00,83.1,73.6,29.99,SSW,211,4.0,6.0,73,0.00,,,0.00,765.0,meteobridge,2013-05-18 15:48:00,
2013-05-18 10:51:00,83.5,75.0,29.99,SE,146,2.0,6.0,76,0.00,,,0.00,759.0,meteobridge,2013-05-18 15:51:00,
2013-05-18 10:52:00,83.5,74.3,29.99,SW,215,4.0,8.9,74,0.00,,,0.00,772.0,meteobridge,2013-05-18 15:52:00,
2013-05-18 10:54:00,82.9,73.4,29.99,South,178,2.0,8.9,73,0.00,,,0.00,763.0,meteobridge,2013-05-18 15:54:00,
2013-05-18 10:57:00,83.1,73.9,29.99,SSE,155,0.9,2.9,74,0.00,,,0.00,780.0,meteobridge,2013-05-18 15:57:00,
2013-05-18 10:59:00,83.7,74.5,29.99,East,90,2.9,4.0,74,0.00,,,0.00,788.0,meteobridge,2013-05-18 15:59:00,
2013-05-18 11:02:00,83.5,74.3,29.99,South,178,4.0,6.9,74,0.00,,,0.00,803.0,meteobridge,2013-05-18 16:02:00,
2013-05-18 11:03:00,83.3,72.9,29.99,SSW,211,4.9,6.9,71,0.00,,,0.00,803.0,meteobridge,2013-05-18 16:03:00,
2013-05-18 11:04:00,82.8,73.6,29.99,SE,142,4.0,6.9,74,0.00,,,0.00,795.0,meteobridge,2013-05-18 16:04:00,
2013-05-18 11:06:00,82.8,73.2,29.99,SE,134,4.0,8.9,73,0.00,,,0.00,788.0,meteobridge,2013-05-18 16:06:00,
2013-05-18 11:08:00,82.8,73.6,29.99,SSE,151,0.9,6.0,74,0.00,,,0.00,821.0,meteobridge,2013-05-18 16:08:00,
2013-05-18 11:09:00,83.1,74.3,29.99,SSW,198,0.9,4.0,75,0.00,,,0.00,838.0,meteobridge,2013-05-18 16:09:00,
2013-05-18 11:10:00,83.3,74.5,29.99,SSW,198,0.0,2.9,75,0.00,,,0.00,826.0,meteobridge,2013-05-18 16:10:00,
2013-05-18 11:11:00,84.0,76.1,29.99,South,171,0.9,4.9,77,0.00,,,0.00,737.0,meteobridge,2013-05-18 16:11:00,
2013-05-18 11:13:00,83.8,74.3,29.99,SSW,202,0.0,8.1,73,0.00,,,0.00,668.0,meteobridge,2013-05-18 16:13:00,
2013-05-18 11:14:00,83.8,73.8,29.99,SSE,156,0.0,4.0,72,0.00,,,0.00,788.0,meteobridge,2013-05-18 16:14:00,
2013-05-18 11:17:00,85.3,76.1,30.00,SW,217,2.0,2.9,74,0.00,,,0.00,696.0,meteobridge,2013-05-18 16:17:00,
2013-05-18 11:18:00,85.1,74.1,30.00,SSE,155,2.9,4.0,70,0.00,,,0.00,712.0,meteobridge,2013-05-18 16:18:00,
2013-05-18 11:20:00,84.7,74.3,30.00,SSW,208,2.9,4.9,71,0.00,,,0.00,782.0,meteobridge,2013-05-18 16:20:00,
2013-05-18 11:22:00,84.2,74.1,30.00,South,171,2.0,6.9,72,0.00,,,0.00,849.0,meteobridge,2013-05-18 16:22:00,
2013-05-18 11:23:00,84.2,74.7,30.00,SSW,206,4.0,4.0,73,0.00,,,0.00,800.0,meteobridge,2013-05-18 16:23:00,
2013-05-18 11:25:00,84.0,73.9,30.00,South,176,4.0,6.0,72,0.00,,,0.00,833.0,meteobridge,2013-05-18 16:25:00,
2013-05-18 11:27:00,83.8,74.3,30.00,ESE,107,2.0,4.0,73,0.00,,,0.00,874.0,meteobridge,2013-05-18 16:27:00,
2013-05-18 11:29:00,84.2,74.7,30.00,SSW,194,2.0,4.0,73,0.00,,,0.00,868.0,meteobridge,2013-05-18 16:29:00,
2013-05-18 11:30:00,84.4,74.3,30.00,SSE,150,2.9,6.0,72,0.00,,,0.00,870.0,meteobridge,2013-05-18 16:30:00,
2013-05-18 11:31:00,84.4,73.9,30.00,SSE,158,2.9,6.0,71,0.00,,,0.00,867.0,meteobridge,2013-05-18 16:31:00,
2013-05-18 11:33:00,84.0,73.9,30.00,SSE,162,4.9,8.9,72,0.00,,,0.00,853.0,meteobridge,2013-05-18 16:33:00,
2013-05-18 11:35:00,84.4,75.2,30.00,SE,138,0.9,2.9,74,0.00,,,0.00,868.0,meteobridge,2013-05-18 16:35:00,
2013-05-18 11:36:00,84.6,74.5,30.00,SE,146,6.9,6.9,72,0.00,,,0.00,870.0,meteobridge,2013-05-18 16:36:00,
2013-05-18 11:38:00,84.6,73.2,30.00,SSE,160,6.9,8.9,69,0.00,,,0.00,860.0,meteobridge,2013-05-18 16:38:00,
2013-05-18 11:41:00,84.6,74.1,30.00,ESE,106,2.9,6.0,71,0.00,,,0.00,854.0,meteobridge,2013-05-18 16:41:00,
2013-05-18 11:42:00,84.7,74.7,30.00,SSE,155,0.9,6.9,72,0.00,,,0.00,860.0,meteobridge,2013-05-18 16:42:00,
2013-05-18 11:44:00,85.3,74.8,30.00,SE,133,2.0,6.9,71,0.00,,,0.00,861.0,meteobridge,2013-05-18 16:44:00,
2013-05-18 11:46:00,85.1,74.1,30.01,SE,129,0.9,8.9,70,0.00,,,0.00,867.0,meteobridge,2013-05-18 16:46:00,
2013-05-18 11:47:00,85.3,74.3,30.00,SE,131,0.9,8.9,70,0.00,,,0.00,877.0,meteobridge,2013-05-18 16:47:00,
2013-05-18 11:49:00,85.5,74.1,30.01,SE,138,0.9,4.9,69,0.00,,,0.00,884.0,meteobridge,2013-05-18 16:49:00,
2013-05-18 11:52:00,85.3,73.9,30.01,East,88,0.9,11.0,69,0.00,,,0.00,886.0,meteobridge,2013-05-18 16:52:00,
2013-05-18 11:53:00,85.6,74.7,30.01,East,88,0.9,11.0,70,0.00,,,0.00,891.0,meteobridge,2013-05-18 16:53:00,
2013-05-18 11:56:00,86.2,73.9,30.01,SW,223,6.0,8.1,67,0.00,,,0.00,884.0,meteobridge,2013-05-18 16:56:00,
2013-05-18 11:57:00,85.6,73.4,30.01,South,179,4.9,8.9,67,0.00,,,0.00,888.0,meteobridge,2013-05-18 16:57:00,
2013-05-18 11:58:00,85.3,73.6,30.00,SSW,213,0.0,8.9,68,0.00,,,0.00,893.0,meteobridge,2013-05-18 16:58:00,
2013-05-18 11:59:00,86.0,75.0,30.01,East,96,0.0,4.0,70,0.00,,,0.00,904.0,meteobridge,2013-05-18 16:59:00,
2013-05-18 12:02:00,86.7,74.8,30.00,SW,215,4.9,6.0,68,0.00,,,0.00,891.0,meteobridge,2013-05-18 17:02:00,
2013-05-18 12:03:00,86.5,74.3,30.00,South,179,6.9,6.9,67,0.00,,,0.00,891.0,meteobridge,2013-05-18 17:03:00,
2013-05-18 12:04:00,86.2,74.3,30.00,ESE,111,4.0,6.9,68,0.00,,,0.00,886.0,meteobridge,2013-05-18 17:04:00,
2013-05-18 12:07:00,85.5,73.8,30.00,SSE,162,2.0,6.9,68,0.00,,,0.00,898.0,meteobridge,2013-05-18 17:07:00,
2013-05-18 12:08:00,85.5,73.8,30.00,ENE,62,0.0,6.0,68,0.00,,,0.00,896.0,meteobridge,2013-05-18 17:08:00,
2013-05-18 12:10:00,85.5,73.2,30.00,SW,218,4.0,6.9,67,0.00,,,0.00,900.0,meteobridge,2013-05-18 17:10:00,
2013-05-18 12:13:00,85.6,75.2,30.00,SSE,157,4.0,4.9,71,0.00,,,0.00,900.0,meteobridge,2013-05-18 17:13:00,
2013-05-18 12:15:00,85.8,74.8,30.00,SW,219,4.0,6.9,70,0.00,,,0.00,900.0,meteobridge,2013-05-18 17:15:00,
2013-05-18 12:18:00,86.0,75.0,30.00,SSE,148,2.0,8.1,70,0.00,,,0.00,895.0,meteobridge,2013-05-18 17:18:00,
2013-05-18 12:20:00,86.5,75.6,30.00,East,84,2.0,6.0,70,0.00,,,0.00,900.0,meteobridge,2013-05-18 17:20:00,
2013-05-18 12:21:00,86.7,74.8,30.00,SE,140,4.9,6.9,68,0.00,,,0.00,918.0,meteobridge,2013-05-18 17:21:00,
2013-05-18 12:24:00,86.4,74.5,30.00,SSW,203,2.9,6.9,68,0.00,,,0.00,911.0,meteobridge,2013-05-18 17:24:00,
2013-05-18 12:25:00,86.4,74.5,30.00,South,183,0.9,6.9,68,0.00,,,0.00,904.0,meteobridge,2013-05-18 17:25:00,
2013-05-18 12:26:00,86.5,75.9,30.00,South,175,0.9,6.9,71,0.00,,,0.00,912.0,meteobridge,2013-05-18 17:26:00,
2013-05-18 12:30:00,86.7,73.9,30.00,SSE,151,2.9,6.0,66,0.00,,,0.00,919.0,meteobridge,2013-05-18 17:30:00,
2013-05-18 12:31:00,86.7,74.5,30.00,SE,146,4.9,8.1,67,0.00,,,0.00,919.0,meteobridge,2013-05-18 17:31:00,
2013-05-18 12:34:00,86.7,73.9,30.00,SE,131,6.0,10.1,66,0.00,,,0.00,919.0,meteobridge,2013-05-18 17:34:00,
2013-05-18 12:35:00,86.7,73.6,30.00,South,180,2.0,10.1,65,0.00,,,0.00,926.0,meteobridge,2013-05-18 17:35:00,
2013-05-18 12:36:00,86.7,73.9,29.99,South,181,0.9,6.9,66,0.00,,,0.00,926.0,meteobridge,2013-05-18 17:36:00,
2013-05-18 12:40:00,86.7,75.4,29.99,SSW,197,0.9,6.0,69,0.00,,,0.00,925.0,meteobridge,2013-05-18 17:40:00,
2013-05-18 12:41:00,86.9,75.6,29.99,SSW,197,0.9,4.9,69,0.00,,,0.00,914.0,meteobridge,2013-05-18 17:41:00,
2013-05-18 12:42:00,87.4,74.7,29.99,SE,126,6.0,8.1,66,0.00,,,0.00,916.0,meteobridge,2013-05-18 17:42:00,
2013-05-18 12:46:00,87.6,74.3,29.99,SE,142,0.0,8.9,65,0.00,,,0.00,926.0,meteobridge,2013-05-18 17:46:00,
2013-05-18 12:47:00,87.6,74.3,29.99,SSE,156,2.0,8.9,65,0.00,,,0.00,933.0,meteobridge,2013-05-18 17:47:00,
2013-05-18 12:48:00,88.2,74.5,29.99,SE,145,4.0,6.9,64,0.00,,,0.00,933.0,meteobridge,2013-05-18 17:48:00,
2013-05-18 12:51:00,88.2,74.8,29.99,SE,133,0.0,4.9,65,0.00,,,0.00,942.0,meteobridge,2013-05-18 17:51:00,
2013-05-18 12:52:00,88.2,74.8,29.98,East,93,0.9,4.0,65,0.00,,,0.00,914.0,meteobridge,2013-05-18 17:52:00,
2013-05-18 12:53:00,88.3,74.1,29.98,South,172,4.0,4.9,63,0.00,,,0.00,930.0,meteobridge,2013-05-18 17:53:00,
2013-05-18 12:57:00,86.7,73.6,29.98,SW,214,2.0,10.1,65,0.00,,,0.00,925.0,meteobridge,2013-05-18 17:57:00,
2013-05-18 12:58:00,86.9,75.0,29.98,South,170,2.9,4.9,68,0.00,,,0.00,925.0,meteobridge,2013-05-18 17:58:00,
2013-05-18 12:59:00,87.3,75.4,29.98,ESE,111,2.9,4.9,68,0.00,,,0.00,921.0,meteobridge,2013-05-18 17:59:00,
2013-05-18 13:02:00,88.0,74.3,29.98,SSE,160,0.9,6.0,64,0.00,,,0.00,911.0,meteobridge,2013-05-18 18:02:00,
2013-05-18 13:03:00,88.2,74.5,29.98,South,188,2.9,6.9,64,0.00,,,0.00,916.0,meteobridge,2013-05-18 18:03:00,
2013-05-18 13:06:00,87.3,74.1,29.98,SSE,159,2.9,4.9,65,0.00,,,0.00,928.0,meteobridge,2013-05-18 18:06:00,
2013-05-18 13:07:00,87.3,74.5,29.98,SSE,156,2.0,4.0,66,0.00,,,0.00,919.0,meteobridge,2013-05-18 18:07:00,
2013-05-18 13:09:00,87.3,73.6,29.98,SW,227,2.0,8.1,64,0.00,,,0.00,912.0,meteobridge,2013-05-18 18:09:00,
2013-05-18 13:11:00,87.3,73.6,29.98,South,170,2.0,4.9,64,0.00,,,0.00,919.0,meteobridge,2013-05-18 18:11:00,
2013-05-18 13:12:00,87.4,74.7,29.98,ESE,121,0.9,2.9,66,0.00,,,0.00,914.0,meteobridge,2013-05-18 18:12:00,
2013-05-18 13:13:00,87.4,74.7,29.98,ESE,121,2.0,2.9,66,0.00,,,0.00,911.0,meteobridge,2013-05-18 18:13:00,
2013-05-18 13:14:00,88.0,74.7,29.98,SSE,167,4.9,8.9,65,0.00,,,0.00,902.0,meteobridge,2013-05-18 18:14:00,
2013-05-18 13:16:00,87.8,73.6,29.98,SSE,159,10.1,10.1,63,0.00,,,0.00,914.0,meteobridge,2013-05-18 18:16:00,
2013-05-18 13:18:00,87.4,73.8,29.98,SE,134,2.9,10.1,64,0.00,,,0.00,912.0,meteobridge,2013-05-18 18:18:00,
2013-05-18 13:19:00,87.6,74.3,29.98,SSW,200,2.9,4.9,65,0.00,,,0.00,905.0,meteobridge,2013-05-18 18:19:00,
2013-05-18 13:21:00,88.0,74.3,29.98,SSW,209,4.9,8.1,64,0.00,,,0.00,909.0,meteobridge,2013-05-18 18:21:00,
2013-05-18 13:22:00,88.0,74.3,29.98,South,178,4.9,8.1,64,0.00,,,0.00,909.0,meteobridge,2013-05-18 18:22:00,
2013-05-18 13:23:00,88.0,74.7,29.98,SSW,209,4.0,8.9,65,0.00,,,0.00,909.0,meteobridge,2013-05-18 18:23:00,
2013-05-18 13:24:00,87.4,72.9,29.98,SSW,209,0.9,8.9,62,0.00,,,0.00,816.0,meteobridge,2013-05-18 18:24:00,
2013-05-18 13:25:00,87.4,73.8,29.98,SSE,161,2.9,8.9,64,0.00,,,0.00,909.0,meteobridge,2013-05-18 18:25:00,
2013-05-18 13:27:00,87.3,73.6,29.98,SE,136,0.0,13.0,64,0.00,,,0.00,860.0,meteobridge,2013-05-18 18:27:00,
2013-05-18 13:28:00,87.4,73.8,29.98,SE,136,2.0,6.9,64,0.00,,,0.00,860.0,meteobridge,2013-05-18 18:28:00,
2013-05-18 13:29:00,87.4,73.8,29.98,South,188,2.9,6.0,64,0.00,,,0.00,860.0,meteobridge,2013-05-18 18:29:00,
2013-05-18 13:30:00,87.8,73.6,29.98,SSE,149,4.9,8.1,63,0.00,,,0.00,860.0,meteobridge,2013-05-18 18:30:00,
2013-05-18 13:32:00,88.2,74.5,29.98,South,170,2.0,4.9,64,0.00,,,0.00,146.0,meteobridge,2013-05-18 18:32:00,
2013-05-18 13:33:00,88.2,74.5,29.98,SSW,211,4.0,6.9,64,0.00,,,0.00,146.0,meteobridge,2013-05-18 18:33:00,
2013-05-18 13:34:00,88.0,73.8,29.98,SSW,202,4.0,6.9,63,0.00,,,0.00,142.0,meteobridge,2013-05-18 18:34:00,
2013-05-18 13:35:00,87.8,74.5,29.98,SSE,161,0.0,6.0,65,0.00,,,0.00,142.0,meteobridge,2013-05-18 18:35:00,
2013-05-18 13:37:00,88.3,74.1,29.98,SSE,164,2.9,8.1,63,0.00,,,0.00,174.0,meteobridge,2013-05-18 18:37:00,
2013-05-18 13:38:00,88.3,74.1,29.98,SSE,164,2.0,8.1,63,0.00,,,0.00,174.0,meteobridge,2013-05-18 18:38:00,
2013-05-18 13:39:00,88.3,75.6,29.98,SSW,208,0.0,4.0,66,0.00,,,0.00,151.0,meteobridge,2013-05-18 18:39:00,
2013-05-18 13:40:00,88.5,75.7,29.98,SSW,210,2.0,4.0,66,0.00,,,0.00,151.0,meteobridge,2013-05-18 18:40:00,
2013-05-18 13:41:00,88.9,75.2,29.98,SSW,200,2.0,4.9,64,0.00,,,0.00,146.0,meteobridge,2013-05-18 18:41:00,
2013-05-18 13:42:00,88.5,73.4,29.98,South,183,8.1,8.9,61,0.00,,,0.00,239.0,meteobridge,2013-05-18 18:42:00,
2013-05-18 13:43:00,88.2,73.0,29.98,SSE,161,4.0,8.9,61,0.00,,,0.00,239.0,meteobridge,2013-05-18 18:43:00,
2013-05-18 13:44:00,88.0,73.8,29.98,SSE,158,2.0,8.9,63,0.00,,,0.00,239.0,meteobridge,2013-05-18 18:44:00,
2013-05-18 13:46:00,88.2,73.9,29.98,South,169,4.0,6.0,63,0.00,,,0.00,239.0,meteobridge,2013-05-18 18:46:00,
2013-05-18 13:48:00,88.2,73.9,29.98,SSW,202,4.0,8.1,63,0.00,,,0.00,895.0,meteobridge,2013-05-18 18:48:00,
2013-05-18 13:50:00,88.0,73.4,29.98,SSW,196,2.0,6.9,62,0.00,,,0.00,898.0,meteobridge,2013-05-18 18:50:00,
2013-05-18 13:51:00,87.8,74.1,29.98,SSE,163,4.0,6.9,64,0.00,,,0.00,898.0,meteobridge,2013-05-18 18:51:00,
2013-05-18 13:52:00,88.0,74.7,29.98,SE,146,6.0,6.0,65,0.00,,,0.00,895.0,meteobridge,2013-05-18 18:52:00,
2013-05-18 13:53:00,88.0,73.4,29.98,SSE,147,0.9,6.0,62,0.00,,,0.00,893.0,meteobridge,2013-05-18 18:53:00,
2013-05-18 13:54:00,88.5,75.2,29.98,SE,124,0.9,6.0,65,0.00,,,0.00,898.0,meteobridge,2013-05-18 18:54:00,
2013-05-18 13:55:00,89.1,74.3,29.98,South,184,4.0,6.0,62,0.00,,,0.00,870.0,meteobridge,2013-05-18 18:55:00,
2013-05-18 13:56:00,89.4,75.6,29.98,South,174,6.0,6.9,64,0.00,,,0.00,896.0,meteobridge,2013-05-18 18:56:00,
2013-05-18 13:57:00,89.4,74.7,29.98,SE,128,2.0,6.9,62,0.00,,,0.00,904.0,meteobridge,2013-05-18 18:57:00,
2013-05-18 13:59:00,89.1,74.3,29.97,SSW,194,4.9,6.9,62,0.00,,,0.00,907.0,meteobridge,2013-05-18 18:59:00,
2013-05-18 14:01:00,89.1,74.8,29.98,NE,52,0.0,4.9,63,0.00,,,0.00,930.0,meteobridge,2013-05-18 19:01:00,
2013-05-18 14:02:00,89.2,73.9,29.98,SSE,158,4.9,6.0,61,0.00,,,0.00,884.0,meteobridge,2013-05-18 19:02:00,
2013-05-18 14:03:00,89.1,74.8,29.97,ESE,123,0.0,6.0,63,0.00,,,0.00,884.0,meteobridge,2013-05-18 19:03:00,
2013-05-18 14:04:00,88.9,73.8,29.97,SSW,198,2.9,6.0,61,0.00,,,0.00,926.0,meteobridge,2013-05-18 19:04:00,
2013-05-18 14:07:00,87.6,73.9,29.97,SE,133,0.9,4.9,64,0.00,,,0.00,923.0,meteobridge,2013-05-18 19:07:00,
2013-05-18 14:08:00,87.8,75.0,29.97,SE,143,2.0,2.9,66,0.00,,,0.00,923.0,meteobridge,2013-05-18 19:08:00,
2013-05-18 14:09:00,88.5,76.1,29.97,South,183,2.9,4.9,67,0.00,,,0.00,911.0,meteobridge,2013-05-18 19:09:00,
2013-05-18 14:12:00,89.1,74.8,29.97,SSE,165,2.9,4.0,63,0.00,,,0.00,905.0,meteobridge,2013-05-18 19:12:00,
2013-05-18 14:13:00,89.1,74.8,29.97,SSW,209,2.0,4.9,63,0.00,,,0.00,905.0,meteobridge,2013-05-18 19:13:00,
2013-05-18 14:14:00,89.2,75.4,29.97,SSW,204,2.0,4.9,64,0.00,,,0.00,937.0,meteobridge,2013-05-18 19:14:00,
2013-05-18 14:15:00,89.2,76.5,29.97,SSW,204,0.0,4.9,66,0.00,,,0.00,937.0,meteobridge,2013-05-18 19:15:00,
2013-05-18 14:17:00,88.9,74.1,29.97,SW,217,4.9,6.0,62,0.00,,,0.00,909.0,meteobridge,2013-05-18 19:17:00,
2013-05-18 14:19:00,88.3,74.1,29.97,SSE,167,2.0,6.9,63,0.00,,,0.00,902.0,meteobridge,2013-05-18 19:19:00,
2013-05-18 14:20:00,88.3,75.6,29.97,SSE,157,6.0,6.9,66,0.00,,,0.00,900.0,meteobridge,2013-05-18 19:20:00,
2013-05-18 14:24:00,88.2,73.9,29.97,South,178,4.9,8.1,63,0.00,,,0.00,895.0,meteobridge,2013-05-18 19:24:00,
2013-05-18 14:25:00,88.0,73.8,29.97,SSW,199,2.9,8.1,63,0.00,,,0.00,888.0,meteobridge,2013-05-18 19:25:00,
2013-05-18 14:29:00,88.0,74.7,29.97,SSW,205,6.9,6.9,65,0.00,,,0.00,867.0,meteobridge,2013-05-18 19:29:00,
2013-05-18 14:30:00,88.0,73.8,29.97,SSW,200,0.0,6.9,63,0.00,,,0.00,877.0,meteobridge,2013-05-18 19:30:00,
2013-05-18 14:31:00,88.2,74.8,29.97,SE,137,2.0,6.9,65,0.00,,,0.00,877.0,meteobridge,2013-05-18 19:31:00,
2013-05-18 14:34:00,88.7,73.9,29.97,SSW,210,6.0,8.1,62,0.00,,,0.00,865.0,meteobridge,2013-05-18 19:34:00,
2013-05-18 14:35:00,88.5,73.8,29.97,ESE,120,2.9,8.1,62,0.00,,,0.00,865.0,meteobridge,2013-05-18 19:35:00,
2013-05-18 14:36:00,88.3,73.6,29.97,SE,143,2.0,8.1,62,0.00,,,0.00,865.0,meteobridge,2013-05-18 19:36:00,
2013-05-18 14:37:00,88.7,75.9,29.97,ENE,65,0.9,2.9,66,0.00,,,0.00,888.0,meteobridge,2013-05-18 19:37:00,
2013-05-18 14:40:00,89.8,75.9,29.96,South,182,2.0,10.1,64,0.00,,,0.00,708.0,meteobridge,2013-05-18 19:40:00,
2013-05-18 14:41:00,90.1,76.8,29.96,East,101,2.9,2.9,65,0.00,,,0.00,875.0,meteobridge,2013-05-18 19:41:00,
2013-05-18 14:42:00,90.3,75.6,29.96,South,188,4.0,6.0,62,0.00,,,0.00,884.0,meteobridge,2013-05-18 19:42:00,
2013-05-18 14:45:00,90.0,75.2,29.96,SE,142,0.0,6.0,62,0.00,,,0.00,849.0,meteobridge,2013-05-18 19:45:00,
2013-05-18 14:46:00,90.0,75.2,29.96,SE,142,0.0,6.0,62,0.00,,,0.00,796.0,meteobridge,2013-05-18 19:46:00,
2013-05-18 14:48:00,90.9,76.1,29.96,South,187,2.9,4.9,62,0.00,,,0.00,872.0,meteobridge,2013-05-18 19:48:00,
2013-05-18 14:49:00,90.7,73.9,29.96,East,99,2.9,8.1,58,0.00,,,0.00,874.0,meteobridge,2013-05-18 19:49:00,
2013-05-18 14:51:00,90.1,74.3,29.96,South,189,8.1,10.1,60,0.00,,,0.00,849.0,meteobridge,2013-05-18 19:51:00,
2013-05-18 14:52:00,89.8,74.1,29.96,SSE,160,4.0,10.1,60,0.00,,,0.00,888.0,meteobridge,2013-05-18 19:52:00,
2013-05-18 14:53:00,89.2,73.9,29.96,South,178,2.0,8.1,61,0.00,,,0.00,874.0,meteobridge,2013-05-18 19:53:00,
2013-05-18 14:55:00,89.4,72.7,29.96,ESE,116,4.9,10.1,58,0.00,,,0.00,854.0,meteobridge,2013-05-18 19:55:00,
2013-05-18 14:56:00,89.2,73.0,29.96,South,174,4.9,14.1,59,0.00,,,0.00,865.0,meteobridge,2013-05-18 19:56:00,
2013-05-18 14:57:00,88.9,71.6,29.96,SSE,161,4.9,14.1,57,0.00,,,0.00,863.0,meteobridge,2013-05-18 19:57:00,
2013-05-18 14:58:00,88.7,72.5,29.96,SSW,206,2.9,6.0,59,0.00,,,0.00,844.0,meteobridge,2013-05-18 19:58:00,
2013-05-18 14:59:00,88.5,73.4,29.96,SSE,153,0.9,4.9,61,0.00,,,0.00,844.0,meteobridge,2013-05-18 19:59:00,
2013-05-18 15:01:00,88.5,72.9,29.96,South,173,2.9,8.1,60,0.00,,,0.00,729.0,meteobridge,2013-05-18 20:01:00,
2013-05-18 15:02:00,88.5,73.4,29.96,SSE,165,2.0,6.9,61,0.00,,,0.00,772.0,meteobridge,2013-05-18 20:02:00,
2013-05-18 15:03:00,88.3,72.7,29.96,SSW,196,4.9,6.9,60,0.00,,,0.00,772.0,meteobridge,2013-05-18 20:03:00,
2013-05-18 15:04:00,88.2,73.9,29.96,SSE,167,2.9,6.9,63,0.00,,,0.00,882.0,meteobridge,2013-05-18 20:04:00,
2013-05-18 15:06:00,88.9,74.7,29.96,SE,132,4.0,6.0,63,0.00,,,0.00,844.0,meteobridge,2013-05-18 20:06:00,
2013-05-18 15:07:00,89.1,73.9,29.96,WSW,241,6.9,8.1,61,0.00,,,0.00,840.0,meteobridge,2013-05-18 20:07:00,
2013-05-18 15:08:00,88.9,72.7,29.96,SSW,207,2.9,10.1,59,0.00,,,0.00,768.0,meteobridge,2013-05-18 20:08:00,
2013-05-18 15:09:00,88.5,73.8,29.96,SSW,206,2.9,10.1,62,0.00,,,0.00,830.0,meteobridge,2013-05-18 20:09:00,
2013-05-18 15:10:00,88.5,73.8,29.96,SSW,213,8.9,8.9,62,0.00,,,0.00,833.0,meteobridge,2013-05-18 20:10:00,
2013-05-18 15:12:00,88.9,74.7,29.96,ESE,115,2.9,8.9,63,0.00,,,0.00,796.0,meteobridge,2013-05-18 20:12:00,
2013-05-18 15:13:00,89.2,73.9,29.96,ESE,123,8.1,8.1,61,0.00,,,0.00,802.0,meteobridge,2013-05-18 20:13:00,
2013-05-18 15:15:00,89.2,73.6,29.96,ESE,113,2.9,8.1,60,0.00,,,0.00,768.0,meteobridge,2013-05-18 20:15:00,
2013-05-18 15:16:00,89.2,73.6,29.96,SSE,155,6.9,8.1,60,0.00,,,0.00,798.0,meteobridge,2013-05-18 20:16:00,
2013-05-18 15:17:00,89.1,72.3,29.96,SE,132,8.1,8.1,58,0.00,,,0.00,777.0,meteobridge,2013-05-18 20:17:00,
2013-05-18 15:18:00,88.5,72.3,29.95,SSE,154,2.9,8.9,59,0.00,,,0.00,795.0,meteobridge,2013-05-18 20:18:00,
2013-05-18 15:19:00,88.5,72.3,29.95,SSE,154,0.9,8.9,59,0.00,,,0.00,795.0,meteobridge,2013-05-18 20:19:00,
2013-05-18 15:22:00,88.9,73.2,29.95,SSE,167,4.0,10.1,60,0.00,,,0.00,823.0,meteobridge,2013-05-18 20:22:00,
2013-05-18 15:24:00,89.1,73.4,29.95,SW,221,4.9,6.0,60,0.00,,,0.00,772.0,meteobridge,2013-05-18 20:24:00,
2013-05-18 15:27:00,88.7,73.0,29.95,SSE,168,4.0,6.9,60,0.00,,,0.00,817.0,meteobridge,2013-05-18 20:27:00,
2013-05-18 15:28:00,89.1,74.3,29.95,SE,140,2.0,6.9,62,0.00,,,0.00,809.0,meteobridge,2013-05-18 20:28:00,
2013-05-18 15:29:00,89.2,74.5,29.95,SSE,167,2.9,8.9,62,0.00,,,0.00,816.0,meteobridge,2013-05-18 20:29:00,
2013-05-18 15:30:00,89.4,73.8,29.95,SE,132,2.0,8.9,60,0.00,,,0.00,835.0,meteobridge,2013-05-18 20:30:00,
2013-05-18 15:32:00,89.4,72.7,29.95,South,169,2.9,6.0,58,0.00,,,0.00,775.0,meteobridge,2013-05-18 20:32:00,
2013-05-18 15:33:00,89.2,73.0,29.95,SSE,160,0.0,6.0,59,0.00,,,0.00,833.0,meteobridge,2013-05-18 20:33:00,
2013-05-18 15:34:00,89.2,73.0,29.95,SE,143,6.0,6.0,59,0.00,,,0.00,795.0,meteobridge,2013-05-18 20:34:00,
2013-05-18 15:35:00,89.2,73.0,29.95,SE,139,4.0,6.9,59,0.00,,,0.00,826.0,meteobridge,2013-05-18 20:35:00,
2013-05-18 15:37:00,89.2,73.6,29.95,SE,129,6.0,8.1,60,0.00,,,0.00,714.0,meteobridge,2013-05-18 20:37:00,
2013-05-18 15:38:00,89.2,72.5,29.95,South,188,2.0,8.1,58,0.00,,,0.00,714.0,meteobridge,2013-05-18 20:38:00,
2013-05-18 15:39:00,89.2,73.6,29.95,South,189,4.0,6.0,60,0.00,,,0.00,772.0,meteobridge,2013-05-18 20:39:00,
2013-05-18 15:41:00,88.9,72.7,29.95,SSE,157,2.0,10.1,59,0.00,,,0.00,696.0,meteobridge,2013-05-18 20:41:00,
2013-05-18 15:43:00,88.5,71.8,29.95,ENE,76,2.9,10.1,58,0.00,,,0.00,659.0,meteobridge,2013-05-18 20:43:00,
2013-05-18 15:44:00,88.5,72.3,29.95,SSE,160,2.0,10.1,59,0.00,,,0.00,740.0,meteobridge,2013-05-18 20:44:00,
2013-05-18 15:46:00,88.9,72.7,29.95,SSE,149,0.0,8.9,59,0.00,,,0.00,722.0,meteobridge,2013-05-18 20:46:00,
2013-05-18 15:48:00,88.9,73.2,29.95,NNW,329,2.0,6.0,60,0.00,,,0.00,705.0,meteobridge,2013-05-18 20:48:00,
2013-05-18 15:49:00,89.1,73.4,29.95,South,188,4.0,8.1,60,0.00,,,0.00,635.0,meteobridge,2013-05-18 20:49:00,
2013-05-18 15:50:00,88.9,72.1,29.95,SE,131,8.1,8.1,58,0.00,,,0.00,543.0,meteobridge,2013-05-18 20:50:00,
2013-05-18 15:51:00,88.5,72.3,29.95,SE,130,2.0,8.1,59,0.00,,,0.00,543.0,meteobridge,2013-05-18 20:51:00,
2013-05-18 15:53:00,88.3,72.7,29.95,SSE,164,0.0,2.9,60,0.00,,,0.00,232.0,meteobridge,2013-05-18 20:53:00,
2013-05-18 15:55:00,88.9,73.8,29.95,SSE,153,4.9,4.9,61,0.00,,,0.00,209.0,meteobridge,2013-05-18 20:55:00,
2013-05-18 15:57:00,88.5,71.8,29.95,South,175,4.0,6.9,58,0.00,,,0.00,193.0,meteobridge,2013-05-18 20:57:00,
2013-05-18 15:58:00,88.5,72.3,29.94,ESE,109,2.0,4.0,59,0.00,,,0.00,199.0,meteobridge,2013-05-18 20:58:00,
2013-05-18 16:00:00,88.9,72.7,29.94,South,170,4.9,8.1,59,0.00,,,0.00,255.0,meteobridge,2013-05-18 21:00:00,
2013-05-18 16:01:00,88.5,71.4,29.95,South,177,11.0,11.0,57,0.00,,,0.00,269.0,meteobridge,2013-05-18 21:01:00,
2013-05-18 16:02:00,88.3,71.2,29.94,West,261,4.0,11.0,57,0.00,,,0.00,269.0,meteobridge,2013-05-18 21:02:00,
2013-05-18 16:05:00,88.0,71.8,29.94,ESE,109,0.0,4.9,59,0.00,,,0.00,285.0,meteobridge,2013-05-18 21:05:00,
2013-05-18 16:06:00,88.0,71.8,29.94,South,175,2.0,6.9,59,0.00,,,0.00,285.0,meteobridge,2013-05-18 21:06:00,
2013-05-18 16:07:00,88.0,71.8,29.94,South,187,0.9,6.9,59,0.00,,,0.00,214.0,meteobridge,2013-05-18 21:07:00,
2013-05-18 16:10:00,88.0,70.9,29.94,SSE,167,2.9,8.9,57,0.00,,,0.00,214.0,meteobridge,2013-05-18 21:10:00,
2013-05-18 16:11:00,88.0,72.3,29.94,SSW,202,4.9,8.1,60,0.00,,,0.00,214.0,meteobridge,2013-05-18 21:11:00,
2013-05-18 16:13:00,88.3,72.1,29.94,SE,141,4.9,4.9,59,0.00,,,0.00,294.0,meteobridge,2013-05-18 21:13:00,
2013-05-18 16:15:00,88.7,72.5,29.94,SSE,163,6.0,8.1,59,0.00,,,0.00,429.0,meteobridge,2013-05-18 21:15:00,
2013-05-18 16:16:00,88.5,71.4,29.94,SSE,165,2.9,8.1,57,0.00,,,0.00,429.0,meteobridge,2013-05-18 21:16:00,
2013-05-18 16:18:00,88.3,71.6,29.94,East,89,2.0,8.1,58,0.00,,,0.00,429.0,meteobridge,2013-05-18 21:18:00,
2013-05-18 16:21:00,88.5,71.4,29.94,SSE,160,0.0,4.9,57,0.00,,,0.00,118.0,meteobridge,2013-05-18 21:21:00,
2013-05-18 16:22:00,88.7,71.4,29.94,SSE,148,6.9,6.9,57,0.00,,,0.00,557.0,meteobridge,2013-05-18 21:22:00,
2013-05-18 16:24:00,88.5,72.3,29.94,SE,140,4.0,6.0,59,0.00,,,0.00,642.0,meteobridge,2013-05-18 21:24:00,
2013-05-18 16:26:00,88.9,71.6,29.94,East,93,0.9,4.9,57,0.00,,,0.00,541.0,meteobridge,2013-05-18 21:26:00,
2013-05-18 16:27:00,88.7,71.4,29.94,SSE,154,2.0,4.9,57,0.00,,,0.00,144.0,meteobridge,2013-05-18 21:27:00,
2013-05-18 16:28:00,88.7,71.4,29.94,SSE,159,0.9,6.9,57,0.00,,,0.00,171.0,meteobridge,2013-05-18 21:28:00,
2013-05-18 16:29:00,88.5,71.4,29.94,SSE,148,4.0,8.1,57,0.00,,,0.00,167.0,meteobridge,2013-05-18 21:29:00,
2013-05-18 16:32:00,88.0,71.4,29.94,SSE,156,2.9,8.1,58,0.00,,,0.00,220.0,meteobridge,2013-05-18 21:32:00,
2013-05-18 16:33:00,88.0,71.4,29.94,SSE,165,4.9,6.0,58,0.00,,,0.00,295.0,meteobridge,2013-05-18 21:33:00,
2013-05-18 16:34:00,88.0,71.8,29.94,South,188,2.0,8.1,59,0.00,,,0.00,262.0,meteobridge,2013-05-18 21:34:00,
2013-05-18 16:37:00,87.6,71.1,29.94,SSE,148,0.0,8.9,58,0.00,,,0.00,564.0,meteobridge,2013-05-18 21:37:00,
2013-05-18 16:38:00,87.8,72.7,29.95,South,191,2.9,6.0,61,0.00,,,0.00,564.0,meteobridge,2013-05-18 21:38:00,
2013-05-18 16:39:00,88.0,72.3,29.95,SE,134,2.9,4.9,60,0.00,,,0.00,564.0,meteobridge,2013-05-18 21:39:00,
2013-05-18 16:43:00,88.2,73.0,29.95,SSE,148,2.0,6.0,61,0.00,,,0.00,422.0,meteobridge,2013-05-18 21:43:00,
2013-05-18 16:45:00,88.0,71.4,29.95,ESE,114,2.0,8.1,58,0.00,,,0.00,432.0,meteobridge,2013-05-18 21:45:00,
2013-05-18 16:46:00,88.0,72.9,29.94,SE,138,2.0,8.1,61,0.00,,,0.00,550.0,meteobridge,2013-05-18 21:46:00,
2013-05-18 16:48:00,87.8,72.7,29.94,ESE,113,4.9,6.9,61,0.00,,,0.00,206.0,meteobridge,2013-05-18 21:48:00,
2013-05-18 16:49:00,87.6,72.0,29.95,SSE,167,6.0,6.9,60,0.00,,,0.00,211.0,meteobridge,2013-05-18 21:49:00,
2013-05-18 16:51:00,87.4,72.3,29.94,SSW,193,4.0,12.1,61,0.00,,,0.00,211.0,meteobridge,2013-05-18 21:51:00,
2013-05-18 16:52:00,87.4,72.9,29.95,South,173,2.0,6.0,62,0.00,,,0.00,211.0,meteobridge,2013-05-18 21:52:00,
2013-05-18 16:53:00,87.4,73.2,29.94,SE,130,0.9,8.9,63,0.00,,,0.00,529.0,meteobridge,2013-05-18 21:53:00,
2013-05-18 16:54:00,87.6,72.5,29.94,SSE,150,2.0,6.9,61,0.00,,,0.00,531.0,meteobridge,2013-05-18 21:54:00,
2013-05-18 16:56:00,88.0,72.9,29.95,SSW,209,4.0,6.9,61,0.00,,,0.00,526.0,meteobridge,2013-05-18 21:56:00,
2013-05-18 16:58:00,87.6,72.0,29.94,SSE,158,4.0,6.9,60,0.00,,,0.00,527.0,meteobridge,2013-05-18 21:58:00,
2013-05-18 17:00:00,87.4,72.3,29.94,SSE,165,4.9,8.1,61,0.00,,,0.00,526.0,meteobridge,2013-05-18 22:00:00,
2013-05-18 17:01:00,87.4,72.9,29.94,East,85,6.0,8.1,62,0.00,,,0.00,519.0,meteobridge,2013-05-18 22:01:00,
2013-05-18 17:02:00,87.4,72.9,29.94,WSW,257,2.0,6.9,62,0.00,,,0.00,513.0,meteobridge,2013-05-18 22:02:00,
2013-05-18 17:04:00,87.3,73.6,29.94,SE,144,2.9,8.9,64,0.00,,,0.00,512.0,meteobridge,2013-05-18 22:04:00,
2013-05-18 17:05:00,87.6,73.9,29.94,SE,133,2.9,6.0,64,0.00,,,0.00,503.0,meteobridge,2013-05-18 22:05:00,
2013-05-18 17:07:00,87.8,73.2,29.94,South,178,0.9,6.9,62,0.00,,,0.00,499.0,meteobridge,2013-05-18 22:07:00,
2013-05-18 17:09:00,87.4,73.8,29.94,South,180,6.9,6.9,64,0.00,,,0.00,489.0,meteobridge,2013-05-18 22:09:00,
2013-05-18 17:10:00,87.3,73.6,29.94,SE,138,2.9,6.9,64,0.00,,,0.00,483.0,meteobridge,2013-05-18 22:10:00,
2013-05-18 17:12:00,87.6,74.3,29.94,ESE,118,0.9,8.1,65,0.00,,,0.00,480.0,meteobridge,2013-05-18 22:12:00,
2013-05-18 17:13:00,87.6,73.9,29.94,SE,138,2.0,6.0,64,0.00,,,0.00,473.0,meteobridge,2013-05-18 22:13:00,
2013-05-18 17:14:00,87.6,73.9,29.94,SSE,165,4.0,6.0,64,0.00,,,0.00,466.0,meteobridge,2013-05-18 22:14:00,
2013-05-18 17:15:00,87.3,73.0,29.94,SE,130,4.0,6.9,63,0.00,,,0.00,431.0,meteobridge,2013-05-18 22:15:00,
2013-05-18 17:17:00,86.7,73.0,29.95,East,101,0.9,8.9,64,0.00,,,0.00,461.0,meteobridge,2013-05-18 22:17:00,
2013-05-18 17:18:00,86.9,73.2,29.95,ESE,105,0.9,8.9,64,0.00,,,0.00,459.0,meteobridge,2013-05-18 22:18:00,
2013-05-18 17:19:00,87.3,74.1,29.95,SSE,153,2.9,4.0,65,0.00,,,0.00,450.0,meteobridge,2013-05-18 22:19:00,
2013-05-18 17:21:00,87.3,73.0,29.94,SSE,163,2.9,8.9,63,0.00,,,0.00,450.0,meteobridge,2013-05-18 22:21:00,
2013-05-18 17:22:00,87.1,72.9,29.95,East,97,0.9,6.9,63,0.00,,,0.00,450.0,meteobridge,2013-05-18 22:22:00,
2013-05-18 17:23:00,87.1,73.4,29.94,SE,146,0.0,6.9,64,0.00,,,0.00,445.0,meteobridge,2013-05-18 22:23:00,
2013-05-18 17:24:00,86.9,73.2,29.94,South,180,0.9,6.9,64,0.00,,,0.00,445.0,meteobridge,2013-05-18 22:24:00,
2013-05-18 17:26:00,86.9,73.8,29.94,ESE,107,0.0,2.9,65,0.00,,,0.00,438.0,meteobridge,2013-05-18 22:26:00,
2013-05-18 17:27:00,87.1,73.9,29.94,SSE,153,6.0,6.9,65,0.00,,,0.00,434.0,meteobridge,2013-05-18 22:27:00,
2013-05-18 17:29:00,86.9,73.8,29.94,SSE,162,6.9,8.1,65,0.00,,,0.00,434.0,meteobridge,2013-05-18 22:29:00,
2013-05-18 17:30:00,86.7,73.0,29.94,SE,126,2.0,8.1,64,0.00,,,0.00,432.0,meteobridge,2013-05-18 22:30:00,
2013-05-18 17:31:00,86.7,72.7,29.94,SE,146,8.1,8.1,63,0.00,,,0.00,415.0,meteobridge,2013-05-18 22:31:00,
2013-05-18 17:32:00,86.7,72.7,29.94,SSE,156,8.1,8.1,63,0.00,,,0.00,415.0,meteobridge,2013-05-18 22:32:00,
2013-05-18 17:33:00,86.5,72.0,29.94,SSE,157,2.9,8.1,62,0.00,,,0.00,411.0,meteobridge,2013-05-18 22:33:00,
2013-05-18 17:34:00,86.5,72.9,29.94,SE,131,0.9,8.1,64,0.00,,,0.00,408.0,meteobridge,2013-05-18 22:34:00,
2013-05-18 17:35:00,86.5,73.4,29.94,SE,130,0.9,8.1,65,0.00,,,0.00,403.0,meteobridge,2013-05-18 22:35:00,
2013-05-18 17:38:00,86.5,72.9,29.94,SSE,158,0.9,8.1,64,0.00,,,0.00,394.0,meteobridge,2013-05-18 22:38:00,
2013-05-18 17:39:00,86.4,73.2,29.94,SE,135,2.0,8.9,65,0.00,,,0.00,390.0,meteobridge,2013-05-18 22:39:00,
2013-05-18 17:40:00,86.4,73.2,29.94,SSE,156,2.0,8.9,65,0.00,,,0.00,390.0,meteobridge,2013-05-18 22:40:00,
2013-05-18 17:41:00,86.5,73.8,29.94,SSE,148,2.9,4.0,66,0.00,,,0.00,383.0,meteobridge,2013-05-18 22:41:00,
2013-05-18 17:43:00,86.7,73.9,29.94,East,101,2.0,4.0,66,0.00,,,0.00,374.0,meteobridge,2013-05-18 22:43:00,
2013-05-18 17:44:00,86.5,73.4,29.94,SE,136,6.0,12.1,65,0.00,,,0.00,371.0,meteobridge,2013-05-18 22:44:00,
2013-05-18 17:46:00,86.2,72.5,29.94,South,173,4.0,12.1,64,0.00,,,0.00,362.0,meteobridge,2013-05-18 22:46:00,
2013-05-18 17:48:00,85.8,73.2,29.94,ESE,105,4.0,4.9,66,0.00,,,0.00,355.0,meteobridge,2013-05-18 22:48:00,
2013-05-18 17:50:00,85.8,73.2,29.94,ESE,123,4.0,10.1,66,0.00,,,0.00,350.0,meteobridge,2013-05-18 22:50:00,
2013-05-18 17:51:00,85.8,73.6,29.94,SSW,205,4.9,6.9,67,0.00,,,0.00,350.0,meteobridge,2013-05-18 22:51:00,
2013-05-18 17:52:00,85.8,73.6,29.94,SSE,157,0.9,6.9,67,0.00,,,0.00,345.0,meteobridge,2013-05-18 22:52:00,
2013-05-18 17:54:00,86.0,73.8,29.94,South,171,0.0,4.9,67,0.00,,,0.00,343.0,meteobridge,2013-05-18 22:54:00,
2013-05-18 17:56:00,86.4,74.5,29.94,ENE,71,10.1,10.1,68,0.00,,,0.00,350.0,meteobridge,2013-05-18 22:56:00,
2013-05-18 17:57:00,86.2,73.9,29.95,SSE,147,6.0,10.1,67,0.00,,,0.00,336.0,meteobridge,2013-05-18 22:57:00,
2013-05-18 17:58:00,86.2,74.3,29.95,SE,142,0.0,8.9,68,0.00,,,0.00,336.0,meteobridge,2013-05-18 22:58:00,
2013-05-18 17:59:00,86.2,74.3,29.95,South,188,2.0,4.9,68,0.00,,,0.00,327.0,meteobridge,2013-05-18 22:59:00,
2013-05-18 18:01:00,85.8,73.6,29.95,ESE,120,6.9,8.1,67,0.00,,,0.00,320.0,meteobridge,2013-05-18 23:01:00,
2013-05-18 18:03:00,85.6,73.9,29.95,South,173,0.0,8.1,68,0.00,,,0.00,311.0,meteobridge,2013-05-18 23:03:00,
2013-05-18 18:05:00,85.8,74.5,29.95,SE,134,0.0,4.0,69,0.00,,,0.00,309.0,meteobridge,2013-05-18 23:05:00,
2013-05-18 18:06:00,85.6,73.9,29.95,South,171,4.0,4.0,68,0.00,,,0.00,304.0,meteobridge,2013-05-18 23:06:00,
2013-05-18 18:08:00,85.5,74.1,29.95,South,182,4.9,6.0,69,0.00,,,0.00,288.0,meteobridge,2013-05-18 23:08:00,
2013-05-18 18:10:00,85.5,74.1,29.95,South,179,6.9,6.9,69,0.00,,,0.00,274.0,meteobridge,2013-05-18 23:10:00,
2013-05-18 18:12:00,84.9,73.6,29.95,SE,146,0.0,6.9,69,0.00,,,0.00,79.0,meteobridge,2013-05-18 23:12:00,
2013-05-18 18:13:00,84.9,74.5,29.95,ESE,123,0.0,2.9,71,0.00,,,0.00,264.0,meteobridge,2013-05-18 23:13:00,
2013-05-18 18:16:00,84.6,74.1,29.95,SSW,196,6.0,6.0,71,0.00,,,0.00,251.0,meteobridge,2013-05-18 23:16:00,
2013-05-18 18:17:00,84.2,73.4,29.95,SSE,167,4.0,6.0,70,0.00,,,0.00,250.0,meteobridge,2013-05-18 23:17:00,
2013-05-18 18:18:00,84.0,73.6,29.95,SSE,161,0.9,6.0,71,0.00,,,0.00,246.0,meteobridge,2013-05-18 23:18:00,
2013-05-18 18:21:00,84.2,74.7,29.95,SE,132,2.9,4.9,73,0.00,,,0.00,102.0,meteobridge,2013-05-18 23:21:00,
2013-05-18 18:22:00,84.2,73.8,29.95,SSE,155,6.0,6.9,71,0.00,,,0.00,95.0,meteobridge,2013-05-18 23:22:00,
2013-05-18 18:23:00,84.0,73.6,29.95,SSW,196,4.9,6.9,71,0.00,,,0.00,113.0,meteobridge,2013-05-18 23:23:00,
2013-05-18 18:24:00,83.8,73.0,29.95,SE,142,4.0,6.0,70,0.00,,,0.00,142.0,meteobridge,2013-05-18 23:24:00,
2013-05-18 18:26:00,83.7,73.2,29.95,SSE,160,4.0,6.0,71,0.00,,,0.00,142.0,meteobridge,2013-05-18 23:26:00,
2013-05-18 18:28:00,83.5,73.6,29.95,SSE,157,0.9,6.0,72,0.00,,,0.00,141.0,meteobridge,2013-05-18 23:28:00,
2013-05-18 18:29:00,83.5,73.9,29.95,SSE,157,0.0,2.9,73,0.00,,,0.00,120.0,meteobridge,2013-05-18 23:29:00,
2013-05-18 18:32:00,83.5,73.9,29.95,SSW,195,0.9,6.9,73,0.00,,,0.00,104.0,meteobridge,2013-05-18 23:32:00,
2013-05-18 18:33:00,83.1,73.9,29.95,ESE,121,0.0,6.0,74,0.00,,,0.00,135.0,meteobridge,2013-05-18 23:33:00,
2013-05-18 18:34:00,83.1,73.9,29.95,ESE,121,0.0,6.0,74,0.00,,,0.00,135.0,meteobridge,2013-05-18 23:34:00,
2013-05-18 18:37:00,83.1,73.9,29.95,South,171,2.9,4.0,74,0.00,,,0.00,107.0,meteobridge,2013-05-18 23:37:00,
2013-05-18 18:39:00,82.9,73.8,29.95,SSE,155,4.9,6.0,74,0.00,,,0.00,132.0,meteobridge,2013-05-18 23:39:00,
2013-05-18 18:40:00,82.9,73.4,29.95,South,173,4.9,10.1,73,0.00,,,0.00,95.0,meteobridge,2013-05-18 23:40:00,
2013-05-18 18:42:00,82.8,73.2,29.95,SE,141,2.9,6.9,73,0.00,,,0.00,114.0,meteobridge,2013-05-18 23:42:00,
2013-05-18 18:44:00,82.6,73.4,29.95,SSW,192,2.0,2.9,74,0.00,,,0.00,83.0,meteobridge,2013-05-18 23:44:00,
2013-05-18 18:45:00,82.6,73.8,29.95,SSW,192,0.9,2.9,75,0.00,,,0.00,67.0,meteobridge,2013-05-18 23:45:00,
2013-05-18 18:46:00,82.4,73.8,29.95,SSW,192,0.9,2.9,75,0.00,,,0.00,67.0,meteobridge,2013-05-18 23:46:00,
2013-05-18 18:47:00,82.2,73.6,29.95,SE,135,0.9,4.0,75,0.00,,,0.00,76.0,meteobridge,2013-05-18 23:47:00,
2013-05-18 18:50:00,82.0,73.4,29.95,SSE,161,4.0,4.0,75,0.00,,,0.00,77.0,meteobridge,2013-05-18 23:50:00,
2013-05-18 18:51:00,82.0,73.4,29.95,South,173,4.0,6.0,75,0.00,,,0.00,79.0,meteobridge,2013-05-18 23:51:00,
2013-05-18 18:52:00,82.0,73.4,29.95,SSE,159,4.0,6.9,75,0.00,,,0.00,74.0,meteobridge,2013-05-18 23:52:00,
2013-05-18 18:55:00,81.9,73.6,29.95,SE,131,0.0,4.0,76,0.00,,,0.00,53.0,meteobridge,2013-05-18 23:55:00,
2013-05-18 18:56:00,81.9,73.2,29.95,SE,131,0.0,4.0,75,0.00,,,0.00,53.0,meteobridge,2013-05-18 23:56:00,
2013-05-18 18:57:00,81.9,73.2,29.95,SE,131,0.9,2.0,75,0.00,,,0.00,46.0,meteobridge,2013-05-18 23:57:00,
2013-05-18 19:01:00,81.9,73.6,29.94,SSE,159,0.0,2.0,76,0.00,,,0.00,69.0,meteobridge,2013-05-19 00:01:00,
2013-05-18 19:02:00,81.7,73.4,29.95,SSE,161,2.0,4.0,76,0.00,,,0.00,86.0,meteobridge,2013-05-19 00:02:00,
2013-05-18 19:06:00,81.3,73.0,29.95,SW,214,0.0,6.0,76,0.00,,,0.00,51.0,meteobridge,2013-05-19 00:06:00,
2013-05-18 19:07:00,81.3,73.0,29.95,SW,214,0.0,6.0,76,0.00,,,0.00,51.0,meteobridge,2013-05-19 00:07:00,
2013-05-18 19:12:00,81.0,72.7,29.94,SE,136,2.9,4.9,76,0.00,,,0.00,47.0,meteobridge,2013-05-19 00:12:00,
2013-05-18 19:13:00,81.0,73.4,29.94,SSE,148,0.0,4.9,78,0.00,,,0.00,47.0,meteobridge,2013-05-19 00:13:00,
2013-05-18 19:14:00,81.0,72.7,29.94,SSE,148,0.0,4.0,76,0.00,,,0.00,47.0,meteobridge,2013-05-19 00:14:00,
2013-05-18 19:17:00,80.6,72.3,29.94,SE,146,0.0,2.0,76,0.00,,,0.00,42.0,meteobridge,2013-05-19 00:17:00,
2013-05-18 19:18:00,80.4,72.1,29.95,SSE,147,0.0,2.9,76,0.00,,,0.00,40.0,meteobridge,2013-05-19 00:18:00,
2013-05-18 19:20:00,80.2,72.7,29.95,South,181,0.0,2.0,78,0.00,,,0.00,42.0,meteobridge,2013-05-19 00:20:00,
2013-05-18 19:22:00,80.1,72.1,29.95,SSE,155,0.0,2.0,77,0.00,,,0.00,39.0,meteobridge,2013-05-19 00:22:00,
2013-05-18 19:24:00,80.1,72.1,29.95,SSE,159,0.9,2.9,77,0.00,,,0.00,37.0,meteobridge,2013-05-19 00:24:00,
2013-05-18 19:26:00,79.9,72.0,29.95,SSE,155,0.9,2.9,77,0.00,,,0.00,35.0,meteobridge,2013-05-19 00:26:00,
2013-05-18 19:29:00,79.5,72.1,29.95,South,175,0.0,0.9,78,0.00,,,0.00,26.0,meteobridge,2013-05-19 00:29:00,
2013-05-18 19:30:00,79.5,72.1,29.95,SSE,150,0.9,0.9,78,0.00,,,0.00,26.0,meteobridge,2013-05-19 00:30:00,
2013-05-18 19:31:00,79.3,72.0,29.95,SSE,150,0.0,0.9,78,0.00,,,0.00,25.0,meteobridge,2013-05-19 00:31:00,
2013-05-18 19:35:00,79.2,71.8,29.95,SE,132,0.0,2.0,78,0.00,,,0.00,21.0,meteobridge,2013-05-19 00:35:00,
2013-05-18 19:36:00,79.0,72.0,29.95,East,95,0.9,0.9,79,0.00,,,0.00,21.0,meteobridge,2013-05-19 00:36:00,
2013-05-18 19:37:00,78.8,71.8,29.95,East,95,0.9,2.0,79,0.00,,,0.00,19.0,meteobridge,2013-05-19 00:37:00,
2013-05-18 19:40:00,78.6,72.0,29.95,SE,140,0.0,2.0,80,0.00,,,0.00,18.0,meteobridge,2013-05-19 00:40:00,
2013-05-18 19:41:00,78.4,71.4,29.95,SSE,153,0.0,2.9,79,0.00,,,0.00,16.0,meteobridge,2013-05-19 00:41:00,
2013-05-18 19:42:00,78.4,71.4,29.95,SSE,153,0.0,2.9,79,0.00,,,0.00,16.0,meteobridge,2013-05-19 00:42:00,
2013-05-18 19:43:00,78.4,71.4,29.95,SSE,153,0.0,2.0,79,0.00,,,0.00,16.0,meteobridge,2013-05-19 00:43:00,
2013-05-18 19:45:00,78.3,71.6,29.95,SSE,153,0.0,0.9,80,0.00,,,0.00,12.0,meteobridge,2013-05-19 00:45:00,
2013-05-18 19:46:00,78.3,71.6,29.95,SSE,153,0.9,0.9,80,0.00,,,0.00,12.0,meteobridge,2013-05-19 00:46:00,
2013-05-18 19:47:00,78.1,71.4,29.95,SSE,153,0.0,0.9,80,0.00,,,0.00,11.0,meteobridge,2013-05-19 00:47:00,
2013-05-18 19:49:00,78.1,71.4,29.96,SSE,153,0.0,0.0,80,0.00,,,0.00,9.0,meteobridge,2013-05-19 00:49:00,
2013-05-18 19:50:00,77.9,71.2,29.96,SSE,153,0.0,0.0,80,0.00,,,0.00,9.0,meteobridge,2013-05-19 00:50:00,
2013-05-18 19:51:00,77.7,71.4,29.96,SSE,153,0.0,0.0,81,0.00,,,0.00,7.0,meteobridge,2013-05-19 00:51:00,
2013-05-18 19:52:00,77.7,71.4,29.96,SSE,153,0.0,0.9,81,0.00,,,0.00,5.0,meteobridge,2013-05-19 00:52:00,
2013-05-18 19:54:00,77.5,71.2,29.96,SSE,153,0.0,0.9,81,0.00,,,0.00,5.0,meteobridge,2013-05-19 00:54:00,
2013-05-18 19:56:00,77.4,71.1,29.96,SSE,153,0.0,0.9,81,0.00,,,0.00,5.0,meteobridge,2013-05-19 00:56:00,
2013-05-18 19:57:00,77.4,71.1,29.96,SSE,153,0.0,0.9,81,0.00,,,0.00,0.0,meteobridge,2013-05-19 00:57:00,
2013-05-18 20:00:00,77.2,71.2,29.96,SSE,155,0.0,2.9,82,0.00,,,0.00,0.0,meteobridge,2013-05-19 01:00:00,
2013-05-18 20:01:00,77.2,71.2,29.96,SSE,155,0.0,0.9,82,0.00,,,0.00,0.0,meteobridge,2013-05-19 01:01:00,
2013-05-18 20:02:00,77.0,71.1,29.96,SSE,161,0.0,2.0,82,0.00,,,0.00,0.0,meteobridge,2013-05-19 01:02:00,
2013-05-18 20:03:00,77.0,71.1,29.96,SSE,161,0.0,2.0,82,0.00,,,0.00,0.0,meteobridge,2013-05-19 01:03:00,
2013-05-18 20:04:00,76.8,70.9,29.96,SSE,161,0.0,2.0,82,0.00,,,0.00,0.0,meteobridge,2013-05-19 01:04:00,
2013-05-18 20:05:00,76.6,70.7,29.96,SSE,161,0.0,0.0,82,0.00,,,0.00,0.0,meteobridge,2013-05-19 01:05:00,
2013-05-18 20:06:00,76.6,70.7,29.96,SSE,161,2.0,2.0,82,0.00,,,0.00,0.0,meteobridge,2013-05-19 01:06:00,
2013-05-18 20:09:00,76.6,71.1,29.96,SE,132,0.0,2.0,83,0.00,,,0.00,0.0,meteobridge,2013-05-19 01:09:00,
2013-05-18 20:10:00,76.6,71.1,29.96,SE,132,0.0,0.0,83,0.00,,,0.00,0.0,meteobridge,2013-05-19 01:10:00,
2013-05-18 20:11:00,76.5,70.9,29.96,SE,132,0.0,0.0,83,0.00,,,0.00,0.0,meteobridge,2013-05-19 01:11:00,
2013-05-18 20:12:00,76.5,70.9,29.96,SE,132,0.0,0.0,83,0.00,,,0.00,0.0,meteobridge,2013-05-19 01:12:00,
2013-05-18 20:15:00,76.1,70.9,29.96,ESE,105,0.0,2.0,84,0.00,,,0.00,0.0,meteobridge,2013-05-19 01:15:00,
2013-05-18 20:17:00,75.9,70.7,29.96,ESE,105,0.0,0.0,84,0.00,,,0.00,0.0,meteobridge,2013-05-19 01:17:00,
2013-05-18 20:18:00,75.9,70.7,29.96,ESE,109,0.9,2.0,84,0.00,,,0.00,0.0,meteobridge,2013-05-19 01:18:00,
2013-05-18 20:21:00,75.9,70.7,29.96,ESE,109,0.0,0.9,84,0.00,,,0.00,0.0,meteobridge,2013-05-19 01:21:00,
2013-05-18 20:22:00,75.7,70.9,29.96,ESE,109,0.0,0.9,85,0.00,,,0.00,0.0,meteobridge,2013-05-19 01:22:00,
2013-05-18 20:23:00,75.7,70.9,29.96,SSW,196,0.0,2.9,85,0.00,,,0.00,0.0,meteobridge,2013-05-19 01:23:00,
2013-05-18 20:24:00,75.7,70.9,29.96,SSW,196,0.0,2.9,85,0.00,,,0.00,0.0,meteobridge,2013-05-19 01:24:00,
2013-05-18 20:26:00,75.6,70.7,29.96,SSW,196,0.9,0.9,85,0.00,,,0.00,0.0,meteobridge,2013-05-19 01:26:00,
2013-05-18 20:28:00,75.4,70.5,29.96,SSW,196,0.0,0.9,85,0.00,,,0.00,0.0,meteobridge,2013-05-19 01:28:00,
2013-05-18 20:29:00,75.4,70.5,29.96,SSW,196,0.0,0.0,85,0.00,,,0.00,0.0,meteobridge,2013-05-19 01:29:00,
2013-05-18 20:30:00,75.4,70.5,29.96,SSW,196,0.9,0.9,85,0.00,,,0.00,0.0,meteobridge,2013-05-19 01:30:00,
2013-05-18 20:32:00,75.4,70.9,29.96,SSW,196,0.0,0.0,86,0.00,,,0.00,0.0,meteobridge,2013-05-19 01:32:00,
2013-05-18 20:33:00,75.2,70.7,29.96,SSW,196,0.0,0.0,86,0.00,,,0.00,0.0,meteobridge,2013-05-19 01:33:00,
2013-05-18 20:35:00,75.0,70.5,29.96,SE,128,0.0,2.0,86,0.00,,,0.00,0.0,meteobridge,2013-05-19 01:35:00,
2013-05-18 20:36:00,75.0,70.5,29.96,SE,128,0.0,0.0,86,0.00,,,0.00,0.0,meteobridge,2013-05-19 01:36:00,
2013-05-18 20:38:00,74.8,70.7,29.96,SE,128,0.0,0.9,87,0.00,,,0.00,0.0,meteobridge,2013-05-19 01:38:00,
2013-05-18 20:41:00,74.8,70.7,29.96,SE,128,0.0,0.9,87,0.00,,,0.00,0.0,meteobridge,2013-05-19 01:41:00,
2013-05-18 20:43:00,74.7,70.5,29.96,SE,128,0.9,0.9,87,0.00,,,0.00,0.0,meteobridge,2013-05-19 01:43:00,
2013-05-18 20:46:00,74.5,70.3,29.96,SE,146,0.0,0.9,87,0.00,,,0.00,0.0,meteobridge,2013-05-19 01:46:00,
2013-05-18 20:47:00,74.5,70.3,29.96,SE,146,0.9,0.9,87,0.00,,,0.00,0.0,meteobridge,2013-05-19 01:47:00,
2013-05-18 20:48:00,74.5,70.7,29.96,SE,146,0.0,0.9,88,0.00,,,0.00,0.0,meteobridge,2013-05-19 01:48:00,
2013-05-18 20:51:00,74.5,70.7,29.96,SE,146,0.0,0.9,88,0.00,,,0.00,0.0,meteobridge,2013-05-19 01:51:00,
2013-05-18 20:52:00,74.5,70.7,29.96,SSE,153,2.0,4.0,88,0.00,,,0.00,0.0,meteobridge,2013-05-19 01:52:00,
2013-05-18 20:53:00,74.5,70.7,29.96,SSE,153,0.9,4.0,88,0.00,,,0.00,0.0,meteobridge,2013-05-19 01:53:00,
2013-05-18 20:54:00,74.5,70.7,29.96,SSE,153,0.9,2.9,88,0.00,,,0.00,0.0,meteobridge,2013-05-19 01:54:00,
2013-05-18 20:57:00,74.5,70.7,29.96,SSE,153,0.0,2.9,88,0.00,,,0.00,0.0,meteobridge,2013-05-19 01:57:00,
2013-05-18 20:58:00,74.5,70.7,29.96,SSE,153,0.0,0.9,88,0.00,,,0.00,0.0,meteobridge,2013-05-19 01:58:00,
2013-05-18 21:00:00,74.5,70.7,29.96,South,169,0.9,4.9,88,0.00,,,0.00,0.0,meteobridge,2013-05-19 02:00:00,
2013-05-18 21:02:00,74.5,70.7,29.95,South,169,0.0,0.9,88,0.00,,,0.00,0.0,meteobridge,2013-05-19 02:02:00,
2013-05-18 21:03:00,74.5,70.7,29.96,South,169,0.9,0.9,88,0.00,,,0.00,0.0,meteobridge,2013-05-19 02:03:00,
2013-05-18 21:05:00,74.3,70.5,29.96,ESE,119,0.0,2.9,88,0.00,,,0.00,0.0,meteobridge,2013-05-19 02:05:00,
2013-05-18 21:06:00,74.3,70.5,29.96,ESE,119,0.9,2.9,88,0.00,,,0.00,0.0,meteobridge,2013-05-19 02:06:00,
2013-05-18 21:07:00,74.3,70.5,29.96,ESE,119,0.0,0.9,88,0.00,,,0.00,0.0,meteobridge,2013-05-19 02:07:00,
2013-05-18 21:08:00,74.3,70.5,29.96,SSE,153,2.0,4.0,88,0.00,,,0.00,0.0,meteobridge,2013-05-19 02:08:00,
2013-05-18 21:10:00,74.3,70.5,29.96,SSE,153,0.0,2.0,88,0.00,,,0.00,0.0,meteobridge,2013-05-19 02:10:00,
2013-05-18 21:12:00,74.3,70.5,29.96,SSE,153,0.0,0.9,88,0.00,,,0.00,0.0,meteobridge,2013-05-19 02:12:00,
2013-05-18 21:13:00,74.3,70.5,29.96,SSE,153,0.0,2.0,88,0.00,,,0.00,0.0,meteobridge,2013-05-19 02:13:00,
2013-05-18 21:15:00,74.5,70.7,29.96,SSE,148,0.0,2.9,88,0.00,,,0.00,0.0,meteobridge,2013-05-19 02:15:00,
2013-05-18 21:17:00,74.3,70.5,29.96,SSE,149,0.0,0.9,88,0.00,,,0.00,0.0,meteobridge,2013-05-19 02:17:00,
2013-05-18 21:18:00,74.1,70.3,29.96,SSE,149,0.0,0.9,88,0.00,,,0.00,0.0,meteobridge,2013-05-19 02:18:00,
2013-05-18 21:20:00,74.1,70.7,29.96,South,171,0.9,2.9,89,0.00,,,0.00,0.0,meteobridge,2013-05-19 02:20:00,
2013-05-18 21:22:00,74.1,70.7,29.96,SSE,152,0.9,4.0,89,0.00,,,0.00,0.0,meteobridge,2013-05-19 02:22:00,
2013-05-18 21:23:00,74.1,70.7,29.96,SSE,152,0.0,2.0,89,0.00,,,0.00,0.0,meteobridge,2013-05-19 02:23:00,
2013-05-18 21:24:00,74.1,70.7,29.96,SE,135,2.0,2.0,89,0.00,,,0.00,0.0,meteobridge,2013-05-19 02:24:00,
2013-05-18 21:26:00,74.1,70.7,29.96,East,100,0.0,4.9,89,0.00,,,0.00,0.0,meteobridge,2013-05-19 02:26:00,
2013-05-18 21:28:00,74.1,70.7,29.96,East,100,0.0,2.0,89,0.00,,,0.00,0.0,meteobridge,2013-05-19 02:28:00,
2013-05-18 21:29:00,74.1,70.7,29.96,East,100,0.0,2.0,89,0.00,,,0.00,0.0,meteobridge,2013-05-19 02:29:00,
2013-05-18 21:30:00,73.9,70.5,29.96,East,100,0.0,2.0,89,0.00,,,0.00,0.0,meteobridge,2013-05-19 02:30:00,
2013-05-18 21:31:00,73.9,70.5,29.96,WSW,258,0.9,0.9,89,0.00,,,0.00,0.0,meteobridge,2013-05-19 02:31:00,
2013-05-18 21:34:00,73.9,70.5,29.96,SSE,157,0.9,2.0,89,0.00,,,0.00,0.0,meteobridge,2013-05-19 02:34:00,
2013-05-18 21:35:00,73.9,70.5,29.96,South,180,2.9,2.9,89,0.00,,,0.00,0.0,meteobridge,2013-05-19 02:35:00,
2013-05-18 21:37:00,73.9,70.5,29.96,South,178,0.0,2.0,89,0.00,,,0.00,0.0,meteobridge,2013-05-19 02:37:00,
2013-05-18 21:38:00,73.9,70.5,29.96,South,178,0.0,0.9,89,0.00,,,0.00,0.0,meteobridge,2013-05-19 02:38:00,
2013-05-18 21:40:00,73.9,70.5,29.96,South,178,0.9,0.9,89,0.00,,,0.00,0.0,meteobridge,2013-05-19 02:40:00,
2013-05-18 21:43:00,73.8,70.7,29.96,ESE,123,0.9,2.0,90,0.00,,,0.00,0.0,meteobridge,2013-05-19 02:43:00,
2013-05-18 21:45:00,73.9,70.9,29.96,South,178,0.0,2.9,90,0.00,,,0.00,0.0,meteobridge,2013-05-19 02:45:00,
2013-05-18 21:46:00,73.9,70.9,29.96,South,178,0.9,2.9,90,0.00,,,0.00,0.0,meteobridge,2013-05-19 02:46:00,
2013-05-18 21:51:00,73.8,70.7,29.96,South,178,0.0,0.0,90,0.00,,,0.00,0.0,meteobridge,2013-05-19 02:51:00,
2013-05-18 21:52:00,73.8,70.7,29.96,ENE,76,0.0,2.0,90,0.00,,,0.00,0.0,meteobridge,2013-05-19 02:52:00,
2013-05-18 21:57:00,73.6,70.7,29.97,SSE,152,0.9,0.9,91,0.00,,,0.00,0.0,meteobridge,2013-05-19 02:57:00,
2013-05-18 21:58:00,73.6,70.7,29.97,SE,142,0.0,2.9,91,0.00,,,0.00,0.0,meteobridge,2013-05-19 02:58:00,
2013-05-18 22:00:00,73.6,70.7,29.97,SE,142,0.0,2.0,91,0.00,,,0.00,0.0,meteobridge,2013-05-19 03:00:00,
2013-05-18 22:03:00,73.6,70.7,29.96,SE,142,0.0,0.9,91,0.00,,,0.00,0.0,meteobridge,2013-05-19 03:03:00,
2013-05-18 22:04:00,73.6,70.7,29.96,SE,142,0.0,0.9,91,0.00,,,0.00,0.0,meteobridge,2013-05-19 03:04:00,
2013-05-18 22:05:00,73.6,71.1,29.96,SE,139,0.0,0.9,92,0.00,,,0.00,0.0,meteobridge,2013-05-19 03:05:00,
2013-05-18 22:08:00,73.6,71.1,29.96,SE,139,0.0,2.0,92,0.00,,,0.00,0.0,meteobridge,2013-05-19 03:08:00,
2013-05-18 22:09:00,73.6,71.1,29.96,SE,139,0.0,2.0,92,0.00,,,0.00,0.0,meteobridge,2013-05-19 03:09:00,
2013-05-18 22:10:00,73.6,71.1,29.96,SE,139,0.0,0.0,92,0.00,,,0.00,0.0,meteobridge,2013-05-19 03:10:00,
2013-05-18 22:14:00,73.6,71.1,29.96,SE,139,0.0,0.9,92,0.00,,,0.00,0.0,meteobridge,2013-05-19 03:14:00,
2013-05-18 22:15:00,73.6,71.1,29.96,SE,139,0.0,0.0,92,0.00,,,0.00,0.0,meteobridge,2013-05-19 03:15:00,
2013-05-18 22:16:00,73.6,71.1,29.96,SE,139,0.0,0.0,92,0.00,,,0.00,0.0,meteobridge,2013-05-19 03:16:00,
2013-05-18 22:18:00,73.6,71.1,29.96,SE,139,0.9,0.9,92,0.00,,,0.00,0.0,meteobridge,2013-05-19 03:18:00,
2013-05-18 22:21:00,73.6,71.1,29.96,SE,139,0.0,0.0,92,0.00,,,0.00,0.0,meteobridge,2013-05-19 03:21:00,
2013-05-18 22:22:00,73.6,71.1,29.96,SE,139,0.9,0.9,92,0.00,,,0.00,0.0,meteobridge,2013-05-19 03:22:00,
2013-05-18 22:23:00,73.8,71.2,29.96,SSE,157,0.0,4.0,92,0.00,,,0.00,0.0,meteobridge,2013-05-19 03:23:00,
2013-05-18 22:27:00,73.8,71.2,29.95,SSE,151,0.0,2.9,92,0.00,,,0.00,0.0,meteobridge,2013-05-19 03:27:00,
2013-05-18 22:28:00,73.8,71.2,29.95,ESE,121,0.0,2.9,92,0.00,,,0.00,0.0,meteobridge,2013-05-19 03:28:00,
2013-05-18 22:29:00,73.8,71.2,29.95,ESE,121,0.0,2.9,92,0.00,,,0.00,0.0,meteobridge,2013-05-19 03:29:00,
2013-05-18 22:33:00,73.9,71.4,29.95,ESE,110,0.9,2.0,92,0.00,,,0.00,0.0,meteobridge,2013-05-19 03:33:00,
2013-05-18 22:34:00,73.9,71.4,29.95,South,182,2.9,2.9,92,0.00,,,0.00,0.0,meteobridge,2013-05-19 03:34:00,
2013-05-18 22:39:00,73.9,71.4,29.95,South,182,0.0,0.0,92,0.00,,,0.00,0.0,meteobridge,2013-05-19 03:39:00,
2013-05-18 22:40:00,73.9,71.4,29.95,South,189,0.0,0.9,92,0.00,,,0.00,0.0,meteobridge,2013-05-19 03:40:00,
2013-05-18 22:41:00,73.9,71.4,29.95,South,189,0.9,0.9,92,0.00,,,0.00,0.0,meteobridge,2013-05-19 03:41:00,
2013-05-18 22:45:00,73.9,71.4,29.95,South,189,0.0,0.0,92,0.00,,,0.00,0.0,meteobridge,2013-05-19 03:45:00,
2013-05-18 22:46:00,73.9,71.4,29.95,South,188,0.0,0.9,92,0.00,,,0.00,0.0,meteobridge,2013-05-19 03:46:00,
2013-05-18 22:47:00,73.9,71.4,29.95,SE,138,0.0,0.9,92,0.00,,,0.00,0.0,meteobridge,2013-05-19 03:47:00,
2013-05-18 22:49:00,73.9,71.4,29.95,South,172,4.0,4.0,92,0.00,,,0.00,0.0,meteobridge,2013-05-19 03:49:00,
2013-05-18 22:50:00,73.9,71.4,29.95,South,186,0.9,4.9,92,0.00,,,0.00,0.0,meteobridge,2013-05-19 03:50:00,
2013-05-18 22:51:00,73.9,71.4,29.95,South,186,0.9,4.9,92,0.00,,,0.00,0.0,meteobridge,2013-05-19 03:51:00,
2013-05-18 22:52:00,73.9,71.4,29.94,South,186,0.0,2.0,92,0.00,,,0.00,0.0,meteobridge,2013-05-19 03:52:00,
2013-05-18 22:54:00,73.9,71.4,29.95,South,186,2.0,2.9,92,0.00,,,0.00,0.0,meteobridge,2013-05-19 03:54:00,
2013-05-18 22:56:00,73.9,71.4,29.95,South,178,2.0,4.0,92,0.00,,,0.00,0.0,meteobridge,2013-05-19 03:56:00,
2013-05-18 22:57:00,73.9,71.4,29.95,SE,134,0.0,2.9,92,0.00,,,0.00,0.0,meteobridge,2013-05-19 03:57:00,
2013-05-18 22:59:00,73.9,71.4,29.95,ESE,121,0.9,4.9,92,0.00,,,0.00,0.0,meteobridge,2013-05-19 03:59:00,
2013-05-18 23:01:00,73.9,71.4,29.95,ESE,121,0.0,2.9,92,0.00,,,0.00,0.0,meteobridge,2013-05-19 04:01:00,
2013-05-18 23:02:00,73.9,71.4,29.95,South,169,2.0,4.0,92,0.00,,,0.00,0.0,meteobridge,2013-05-19 04:02:00,
2013-05-18 23:06:00,74.1,71.6,29.95,South,180,0.9,2.9,92,0.00,,,0.00,0.0,meteobridge,2013-05-19 04:06:00,
2013-05-18 23:08:00,74.1,71.6,29.95,SE,144,0.9,4.0,92,0.00,,,0.00,0.0,meteobridge,2013-05-19 04:08:00,
2013-05-18 23:11:00,74.1,71.6,29.95,SSE,155,2.9,4.9,92,0.00,,,0.00,0.0,meteobridge,2013-05-19 04:11:00,
2013-05-18 23:12:00,74.1,71.6,29.96,SSE,155,2.0,4.9,92,0.00,,,0.00,0.0,meteobridge,2013-05-19 04:12:00,
2013-05-18 23:13:00,74.1,71.6,29.95,SSE,155,0.9,4.0,92,0.00,,,0.00,0.0,meteobridge,2013-05-19 04:13:00,
2013-05-18 23:17:00,74.1,71.6,29.95,SSE,148,0.9,4.0,92,0.00,,,0.00,0.0,meteobridge,2013-05-19 04:17:00,
2013-05-18 23:18:00,74.1,71.6,29.95,SSE,165,2.9,4.0,92,0.00,,,0.00,0.0,meteobridge,2013-05-19 04:18:00,
2013-05-18 23:23:00,74.1,71.6,29.95,SSE,159,0.0,0.9,92,0.00,,,0.00,0.0,meteobridge,2013-05-19 04:23:00,
2013-05-18 23:24:00,74.3,71.8,29.95,SSE,159,0.9,0.9,92,0.00,,,0.00,0.0,meteobridge,2013-05-19 04:24:00,
2013-05-18 23:28:00,74.3,71.8,29.95,South,169,0.9,6.0,92,0.00,,,0.00,0.0,meteobridge,2013-05-19 04:28:00,
2013-05-18 23:29:00,74.3,71.8,29.95,South,169,2.0,6.0,92,0.00,,,0.00,0.0,meteobridge,2013-05-19 04:29:00,
2013-05-18 23:34:00,74.5,72.0,29.95,SSW,209,4.0,6.9,92,0.00,,,0.00,0.0,meteobridge,2013-05-19 04:34:00,
2013-05-18 23:35:00,74.5,72.0,29.95,SSE,149,6.0,6.9,92,0.00,,,0.00,0.0,meteobridge,2013-05-19 04:35:00,
2013-05-18 23:39:00,74.5,72.0,29.95,SE,145,0.9,4.9,92,0.00,,,0.00,0.0,meteobridge,2013-05-19 04:39:00,
2013-05-18 23:40:00,74.5,72.0,29.95,SE,145,0.0,4.9,92,0.00,,,0.00,0.0,meteobridge,2013-05-19 04:40:00,
2013-05-18 23:41:00,74.5,72.0,29.95,SE,145,0.9,4.9,92,0.00,,,0.00,0.0,meteobridge,2013-05-19 04:41:00,
2013-05-18 23:45:00,74.5,71.6,29.95,SSE,159,0.0,2.9,91,0.00,,,0.00,0.0,meteobridge,2013-05-19 04:45:00,
2013-05-18 23:46:00,74.5,71.6,29.95,SSE,159,0.0,2.9,91,0.00,,,0.00,0.0,meteobridge,2013-05-19 04:46:00,
2013-05-18 23:51:00,74.5,71.6,29.96,SE,143,0.9,4.0,91,0.00,,,0.00,0.0,meteobridge,2013-05-19 04:51:00,
2013-05-18 23:52:00,74.5,71.6,29.96,SSW,192,2.9,4.0,91,0.00,,,0.00,0.0,meteobridge,2013-05-19 04:52:00,
2013-05-18 23:57:00,74.5,71.6,29.96,SSE,158,0.9,2.0,91,0.00,,,0.00,0.0,meteobridge,2013-05-19 04:57:00,
2013-05-18 23:58:00,74.5,71.6,29.96,SSE,158,0.0,2.0,91,0.00,,,0.00,0.0,meteobridge,2013-05-19 04:58:00,
2013-05-18 23:59:00,74.5,71.6,29.96,SSE,158,0.9,2.0,91,0.00,,,0.00,0.0,meteobridge,2013-05-19 04:59:00,